GFSWCAN_250_rhum_000.txt.gz
RH
100 91 70 62 70 84 95 99 100 100 100 100 100 100 96 100 100 100 100 92 80 71 54 41 46 55 62 58 41 52 40 47 49 60 60 71 83 97 96 100 97 78 81 86 80 100 96 82 64 86 88 66 66 72
100 100 81 77 93 82 64 84 83 98 100 100 100 100 95 88 100 100 100 100 86 67 61 67 55 67 48 48 58 43 62 73 45 41 45 41 41 48 60 48 80 66 74 82 100 99 78 75 86 96 70 63 79 89
98 88 100 100 99 64 74 79 69 90 100 100 100 100 100 100 98 100 100 100 100 77 82 78 90 88 86 75 67 69 83 82 61 40 33 31 33 40 52 59 67 61 95 100 99 85 69 78 83 70 84 100 100 98
99 87 76 100 100 83 64 49 53 68 68 72 91 96 100 100 100 90 93 92 86 100 100 94 88 89 97 84 68 69 65 57 67 75 57 43 44 47 43 47 49 87 100 100 63 74 70 88 95 100 97 100 95 76
90 96 87 85 89 100 91 92 82 54 57 57 56 70 69 81 100 100 100 91 99 98 99 88 79 99 98 88 100 100 79 69 75 82 71 65 61 58 43 44 49 96 85 60 54 60 57 54 71 92 95 87 79 78
76 100 100 99 74 74 100 100 98 100 99 76 80 86 54 52 60 73 71 68 83 74 67 68 69 88 100 100 100 100 100 100 100 86 66 61 65 68 55 52 89 100 65 76 65 77 81 81 72 74 74 75 92 92
83 100 100 70 48 69 96 100 100 100 100 91 96 80 88 68 61 71 71 56 72 90 82 54 47 64 77 100 100 100 100 100 98 79 79 92 96 84 74 77 100 100 100 99 100 92 88 99 88 78 88 100 100 100
65 58 57 59 59 59 59 64 92 100 100 87 86 71 85 88 93 80 72 62 81 92 90 80 66 57 49 54 85 100 100 100 100 100 100 100 100 100 100 100 93 90 90 92 93 100 99 95 99 95 100 100 99 90
100 100 99 98 95 88 76 62 58 63 66 65 51 49 55 57 66 66 60 59 63 70 78 79 81 83 91 83 70 56 56 63 73 74 86 87 94 92 100 89 86 78 63 58 68 83 89 98 96 95 88 88 88 80
100 100 88 100 100 100 100 95 76 74 94 100 100 81 74 72 71 79 75 56 64 61 63 56 60 57 68 63 69 87 90 87 75 64 65 81 84 100 92 71 68 67 71 67 71 91 100 99 98 86 88 93 74 64
100 100 100 100 99 100 100 100 100 100 100 100 99 100 100 100 100 95 99 88 76 67 65 62 65 74 71 63 71 80 68 65 58 62 63 59 65 84 95 100 90 83 80 86 74 73 83 85 83 81 60 59 58 44
99 100 100 100 98 95 98 100 100 100 100 100 99 100 100 100 96 100 100 100 93 77 86 88 76 80 85 82 85 83 76 75 62 56 57 56 61 53 50 52 74 85 80 81 76 82 74 56 42 25 28 29 30 30
75 85 91 94 96 100 100 97 94 100 95 99 94 95 97 100 98 100 100 100 100 100 100 100 99 96 93 100 94 78 72 60 47 40 33 41 34 36 34 30 34 42 47 50 49 42 21 17 19 20 22 20 16 16
20 27 33 43 61 88 90 89 84 77 83 98 90 82 71 97 100 100 100 100 98 93 88 78 71 73 78 88 89 64 47 42 38 31 30 23 24 15 15 20 22 17 13 14 14 15 16 17 14 11 11 11 12 14
15 15 16 16 20 26 33 38 39 33 29 34 40 42 68 83 82 90 85 69 73 84 67 64 65 50 50 50 34 31 32 28 32 32 19 9 10 11 12 13 13 13 12 13 11 9 8 8 8 10 11 11 11 11
12 13 13 13 14 14 14 15 16 17 16 16 18 21 27 25 30 36 35 32 31 32 26 22 20 21 21 22 23 19 14 12 12 11 11 11 12 12 11 10 10 9 9 8 8 8 10 12 12 10 10 10 9 9
8 8 8 10 10 11 12 13 13 13 13 14 15 17 16 17 16 15 16 15 14 14 13 12 11 10 9 10 11 13 14 12 12 13 13 14 14 13 12 12 11 11 12 12 12 12 12 10 10 10 10 10 10 10
6 6 6 6 7 7 7 8 9 10 11 13 14 14 14 15 15 16 13 11 11 11 10 10 10 10 11 12 13 13 13 14 14 15 16 18 16 14 12 11 12 11 11 11 10 10 11 11 10 10 10 10 8 6
5 5 5 6 6 6 6 6 6 7 8 8 9 10 10 11 12 12 12 11 11 10 10 10 10 13 14 14 14 14 15 14 13 15 16 14 12 11 10 10 10 10 10 10 10 10 10 10 10 9 6 6 6 5
5 5 5 5 5 5 6 6 7 7 8 8 8 8 8 8 8 8 8 8 8 9 10 11 13 13 12 13 13 12 12 12 12 13 14 12 9 9 9 9 9 10 10 10 10 9 7 6 5 5 5 5 5 6
5 5 5 5 5 5 6 6 7 8 7 8 8 7 7 7 7 7 7 7 8 10 11 11 10 10 9 10 11 11 11 11 11 9 10 9 8 9 9 9 9 8 7 6 5 5 5 5 5 5 6 6 6 6
4 4 4 5 5 5 6 7 7 6 6 7 6 6 6 6 6 6 7 8 9 10 8 7 8 9 10 10 10 9 8 7 7 7 5 6 7 6 5 5 5 5 4 5 5 5 5 6 6 6 6 6 7 7
2 2 3 3 4 6 8 6 6 6 5 5 5 6 6 6 7 7 8 9 8 5 4 7 7 6 5 5 5 4 4 3 4 3 4 4 4 4 4 4 4 4 4 5 5 6 6 6 6 6 7 7 7 6
2 3 3 4 5 5 3 2 2 2 2 3 3 3 3 4 3 3 4 3 2 3 3 2 3 3 3 3 3 3 3 3 4 4 4 4 3 4 3 4 4 4 5 6 6 6 6 6 6 6 6 6 6 6
3 4 4 4 3 3 3 3 3 2 2 3 4 4 3 3 3 3 2 2 3 3 4 4 4 4 4 3 3 3 4 4 4 4 3 3 3 3 4 4 5 5 5 6 6 6 6 6 6 6 6 6 6 6
4 3 3 2 2 2 2 3 3 4 4 4 3 3 3 4 3 3 3 4 4 4 4 3 3 3 4 4 4 4 4 4 4 4 3 3 4 4 4 4 5 5 5 5 5 5 5 5 6 6 5 6 6 6
2 2 2 3 3 4 4 3 3 3 2 2 3 3 3 3 3 4 4 4 4 4 4 4 4 4 4 3 3 3 4 4 4 4 4 4 4 4 4 4 4 4 5 5 5 5 5 5 5 6 6 6 6 5
3 3 3 4 3 3 3 3 3 3 4 4 4 4 4 4 4 4 4 4 4 4 4 4 4 4 4 4 4 4 4 4 4 4 4 4 4 4 4 4 4 4 4 5 5 5 5 5 6 6 6 5 4 5
3 3 2 2 2 3 3 3 3 3 3 3 3 3 4 4 3 3 4 4 4 4 4 4 4 4 4 4 4 4 4 4 4 4 4 4 4 4 4 4 4 4 5 5 5 5 6 6 5 4 4 5 5 5
3 3 3 3 3 3 3 3 3 3 3 3 3 3 3 4 4 4 4 4 4 4 4 4 4 4 4 4 4 4 4 4 4 4 4 4 4 4 4 4 5 5 5 5 5 5 4 4 4 5 5 4 4 3
3 3 3 3 3 3 3 3 3 4 3 3 3 4 4 4 4 4 4 4 4 4 4 4 4 4 5 4 4 4 4 4 5 5 4 4 4 4 4 5 5 4 4 4 4 4 5 5 5 4 3 3 3 3
3 3 4 4 4 4 3 3 3 3 4 4 4 4 4 4 4 4 4 4 4 5 5 4 4 5 5 5 4 4 4 4 4 4 4 5 5 4 4 4 4 4 4 5 5 4 4 3 3 3 3 3 3 3
4 4 4 4 4 4 4 4 4 4 4 4 4 4 4 4 4 4 4 4 4 4 4 4 5 5 5 5 5 5 4 4 4 4 3 3 4 4 4 4 4 4 4 3 3 3 3 3 3 3 3 3 3 3

GFSWCAN_250_rhum_006.txt.gz
RH
83 63 53 68 76 90 100 100 94 98 100 100 100 100 100 100 94 86 100 100 98 90 99 92 91 93 98 100 96 96 94 92 92 76 59 62 55 56 64 73 74 57 48 52 65 66 63 55 48 65 87 90 84 92
98 84 46 49 94 99 100 95 100 91 100 100 100 100 100 100 100 100 100 100 100 88 100 100 100 100 100 100 99 94 95 100 100 100 100 93 79 81 81 69 100 96 94 91 86 65 70 80 97 100 100 86 96 100
100 95 75 53 73 95 90 73 93 96 100 100 100 100 96 100 100 100 100 100 100 100 100 100 100 100 100 100 85 71 81 70 66 58 55 58 62 71 69 77 78 79 99 99 75 93 86 98 98 95 97 93 80 77
94 100 81 81 79 69 76 78 82 59 74 92 100 98 88 90 95 89 100 100 100 100 100 100 100 100 99 98 100 86 78 78 65 70 67 64 61 57 65 66 65 53 51 52 53 62 57 63 67 70 67 63 61 60
69 100 100 86 84 99 49 62 51 57 57 57 70 83 77 80 72 83 94 100 98 90 83 88 87 100 100 91 88 84 74 68 67 69 59 52 45 49 45 40 41 59 59 56 53 60 70 71 68 63 70 68 64 64
65 99 100 100 97 85 83 61 66 52 57 56 68 74 60 62 73 87 75 75 69 70 63 58 57 63 71 83 81 74 64 52 55 62 57 45 56 54 53 49 78 76 70 74 68 65 60 69 71 84 89 83 77 78
74 68 81 100 100 100 100 83 77 75 57 61 92 94 78 54 68 88 83 78 80 81 76 57 50 50 62 66 49 47 54 60 63 58 46 46 50 53 63 69 93 80 78 68 78 87 99 100 100 96 92 90 67 56
97 75 68 69 83 97 100 100 96 84 100 74 65 85 89 84 94 89 78 78 87 93 76 51 41 39 42 62 61 62 65 72 74 77 83 91 80 79 73 80 75 74 76 95 100 100 100 94 99 97 89 61 57 53
81 84 99 83 57 56 59 88 92 71 55 100 98 96 82 64 80 97 99 90 70 67 65 77 90 98 89 78 78 65 67 74 84 92 86 71 71 72 75 75 73 84 100 100 100 100 98 81 82 68 48 45 41 27
62 56 66 80 74 62 71 83 80 65 70 74 75 99 100 100 100 100 96 85 84 91 97 100 100 100 100 100 89 80 65 62 64 69 90 87 70 78 88 87 89 95 100 100 93 84 93 75 50 40 32 24 18 17
97 81 72 96 94 88 82 100 79 78 67 66 58 68 69 71 80 78 76 71 78 83 76 70 79 89 84 90 94 88 85 77 73 93 77 67 70 98 97 100 100 97 89 98 89 85 69 40 24 25 19 18 18 18
80 83 83 85 98 100 94 84 98 100 100 99 100 82 69 58 58 61 66 62 57 55 59 70 68 69 68 69 69 66 66 66 63 68 72 75 99 96 90 82 81 91 93 99 81 47 26 26 22 14 15 16 16 17
96 99 98 98 99 95 99 87 87 81 78 90 93 77 73 85 84 73 74 86 92 84 77 76 68 60 60 68 74 81 85 89 82 80 85 98 96 81 74 66 70 70 66 55 27 19 18 16 15 15 16 16 17 18
59 63 65 70 78 90 93 95 91 99 92 86 95 89 85 82 82 85 87 87 84 73 68 72 69 76 84 93 93 84 82 79 82 88 99 88 72 52 48 45 37 31 24 19 17 15 15 14 14 15 15 15 16 16
16 22 37 43 62 61 52 65 89 98 99 99 100 100 100 100 100 100 100 100 91 93 95 95 97 95 87 86 86 78 83 83 91 99 76 64 48 35 29 23 21 20 17 15 13 12 12 12 13 14 14 14 13 12
14 13 16 45 42 36 39 40 33 57 73 86 88 98 95 95 100 100 97 90 82 78 79 80 77 66 70 70 61 75 83 81 67 51 36 30 29 20 17 16 15 14 13 12 11 11 11 11 11 11 12 11 10 10
14 15 14 12 10 8 8 8 14 32 27 62 71 64 61 74 82 82 77 61 58 61 76 69 47 43 40 38 50 39 29 25 26 22 21 18 16 14 13 12 12 10 9 9 9 10 10 11 11 10 10 10 10 10
13 13 14 14 14 13 11 10 10 10 12 13 18 53 65 62 45 52 45 40 32 34 30 29 24 22 21 24 21 18 15 15 15 13 11 10 10 10 10 10 9 8 8 9 10 10 10 10 10 10 10 9 7 5
10 11 12 13 14 14 14 14 14 15 16 16 17 17 15 15 15 14 15 14 14 15 14 15 15 18 17 15 13 11 11 9 8 8 8 9 9 8 8 8 8 9 9 9 10 10 10 9 8 7 5 5 5 5
6 7 8 8 9 10 10 12 12 12 13 13 13 14 13 14 14 14 12 12 12 11 11 12 11 10 8 8 9 8 7 7 7 7 8 9 8 7 8 8 8 8 8 8 8 7 5 4 4 4 4 5 4 4
6 6 7 7 7 7 7 7 8 8 8 8 9 9 8 7 7 6 6 5 6 7 8 8 7 7 6 6 6 6 6 7 7 7 7 7 8 8 8 7 6 6 5 4 3 4 4 4 4 4 4 4 4 4
4 5 5 5 5 6 6 6 6 6 6 6 6 5 5 5 5 5 5 6 6 6 5 5 6 6 6 6 6 6 6 6 6 6 6 6 5 4 3 3 3 3 4 4 4 4 4 4 5 5 4 4 5 6
4 4 4 4 4 5 6 5 5 5 4 4 4 4 4 4 4 5 6 6 5 4 4 5 5 5 6 7 7 6 5 4 4 3 3 3 3 3 4 4 4 4 4 4 5 5 6 6 5 5 5 6 6 6
3 3 3 4 4 4 4 4 3 3 3 3 3 4 4 5 5 6 7 5 3 4 4 4 5 5 4 4 3 3 3 3 3 4 4 4 4 4 4 4 4 4 5 5 5 5 5 5 5 5 6 6 5 5
2 3 4 4 3 2 2 2 2 2 2 2 2 3 4 3 3 4 4 2 2 2 3 4 4 3 3 3 3 3 4 4 4 4 4 4 4 4 4 4 4 5 5 5 5 5 5 5 5 5 5 5 5 5
3 3 2 2 2 2 2 2 2 3 3 4 4 3 3 3 4 5 2 2 4 4 4 3 3 3 3 3 3 3 4 4 4 4 4 4 5 5 5 5 5 5 5 5 5 5 4 5 5 5 5 5 5 5
3 2 2 2 2 2 3 4 4 3 3 2 2 3 3 4 3 3 4 4 3 3 3 3 3 3 3 4 4 4 4 4 4 4 5 5 5 5 5 5 5 5 4 4 4 4 5 5 5 5 5 5 5 5
2 2 3 3 3 3 3 3 2 2 2 3 3 3 3 3 3 3 3 3 3 4 4 3 3 3 4 4 4 4 4 4 4 4 4 5 5 5 5 5 5 5 5 5 5 5 5 5 5 5 5 5 5 5
3 2 3 3 2 2 2 2 3 3 3 3 3 3 3 3 3 3 3 3 3 3 3 3 4 4 4 4 4 4 4 4 4 4 4 4 4 5 5 5 5 5 5 5 5 5 5 5 5 5 5 5 5 5
3 3 2 2 3 2 2 3 2 2 3 2 3 3 3 3 3 3 3 4 4 3 3 3 4 4 4 4 4 5 5 5 5 4 4 5 5 5 4 4 4 4 4 5 5 5 5 5 5 5 5 5 5 4
2 2 2 3 3 3 3 3 3 3 3 3 3 3 3 4 4 4 4 4 4 4 4 4 4 4 4 4 4 4 4 4 4 4 4 5 5 5 5 5 5 4 4 4 4 5 5 5 5 4 4 3 3 4
4 3 3 3 3 4 3 4 3 3 3 4 4 4 4 4 4 3 4 4 4 4 4 4 4 4 4 4 4 4 4 4 5 5 5 4 4 4 4 5 5 5 5 5 5 4 3 3 3 3 3 4 4 4
4 4 4 4 4 4 4 4 4 4 4 4 4 4 4 4 4 4 4 4 4 4 4 4 5 5 5 5 5 5 4 4 4 4 4 4 4 5 5 4 4 4 3 3 3 3 4 4 4 4 4 3 3 3

GFSWCAN_250_rhum_009.txt.gz
RH
91 84 98 99 96 58 81 88 100 92 100 99 100 100 95 100 100 96 98 97 95 98 97 100 86 89 75 85 87 99 100 100 93 88 88 88 75 72 72 79 82 69 71 77 74 62 53 46 42 53 56 51 58 51
80 86 83 97 100 77 62 66 79 90 70 91 98 100 79 95 100 99 98 89 86 82 100 96 90 98 74 72 91 100 90 96 88 82 76 51 46 50 53 48 66 65 62 60 54 44 39 39 46 55 63 71 69 65
77 80 85 100 100 85 77 61 68 100 100 79 78 81 96 100 100 100 100 100 100 96 87 99 100 100 96 85 77 68 58 59 57 50 49 42 36 38 45 58 56 46 48 46 40 46 49 61 76 80 73 77 78 76
95 72 73 87 92 100 100 73 71 75 75 93 80 95 92 84 75 88 96 100 100 100 83 100 100 100 89 81 88 72 61 68 77 70 60 60 60 53 48 49 47 54 64 55 55 72 61 77 68 73 74 75 73 78
85 100 81 89 85 89 100 99 55 65 62 57 78 99 90 100 87 75 90 88 80 75 65 67 87 99 93 86 83 80 75 73 73 67 58 49 45 51 53 60 86 88 80 76 55 62 62 65 78 86 92 71 67 69
89 86 100 93 97 81 93 100 95 63 70 75 61 100 97 94 89 78 67 71 70 63 58 64 64 56 56 61 64 61 62 66 69 77 74 70 75 72 51 49 79 100 68 66 66 67 71 75 80 91 82 83 80 84
99 72 99 100 97 100 99 91 90 98 92 85 63 76 99 93 86 82 71 62 47 48 53 54 61 67 71 62 76 85 87 91 92 94 98 95 82 77 76 77 100 97 89 84 98 92 99 100 100 84 90 86 80 83
95 88 62 98 100 100 100 100 100 96 83 93 85 72 96 100 96 78 65 65 68 74 64 51 53 60 69 72 84 87 87 90 85 77 81 91 87 88 93 100 91 84 90 92 81 98 94 82 74 87 86 79 79 84
78 100 96 80 81 100 100 100 100 100 100 91 80 67 76 89 95 100 85 73 68 84 80 72 65 62 75 93 99 99 86 80 73 75 90 97 100 100 94 85 76 76 77 87 98 82 76 94 93 86 82 73 83 56
56 94 88 100 98 80 95 100 100 100 95 86 76 80 80 79 82 98 84 73 86 96 68 85 100 100 88 73 78 82 79 82 76 71 64 61 61 71 84 69 64 67 62 64 64 70 91 84 73 58 55 64 44 33
48 63 98 81 89 100 94 82 92 98 73 78 99 99 80 60 56 61 74 80 90 82 84 84 84 91 88 94 97 95 86 83 70 61 58 62 76 88 84 82 77 70 74 80 75 72 71 70 53 42 29 24 20 17
59 56 69 100 99 80 98 96 93 95 100 100 75 77 75 81 87 77 62 55 55 55 57 62 75 76 77 80 85 84 78 66 61 59 71 83 88 85 83 85 75 68 68 69 64 61 61 60 31 21 19 17 16 15
41 64 66 70 92 99 98 96 100 100 100 100 99 94 91 84 72 80 86 98 94 86 71 66 76 69 63 60 60 74 81 65 66 77 89 94 81 78 82 79 72 60 55 53 48 38 35 25 23 19 16 15 12 10
20 41 51 65 68 63 65 85 89 89 95 100 100 80 66 83 88 72 73 72 67 82 92 83 91 100 100 90 75 67 76 92 89 88 93 81 72 72 65 54 44 37 29 23 22 22 19 16 13 12 10 9 8 9
17 18 23 56 60 59 79 82 85 76 64 61 60 70 69 64 65 66 73 87 86 81 83 81 84 83 79 80 93 96 98 94 98 85 61 59 57 48 32 22 19 17 17 18 16 13 12 10 9 9 9 8 8 9
17 18 18 20 24 44 66 82 94 85 80 85 83 81 81 65 70 79 92 99 97 91 83 83 86 93 93 93 89 100 88 77 64 55 54 46 36 26 17 14 14 13 13 11 9 8 8 8 7 8 8 8 8 8
15 16 15 15 17 19 25 43 63 79 80 85 99 99 86 83 87 82 88 84 86 85 72 74 70 57 54 77 99 83 55 40 35 29 25 24 17 14 14 13 11 10 9 8 7 7 8 8 8 8 8 9 8 8
14 14 14 14 14 15 16 18 22 29 38 47 58 56 55 56 60 57 45 44 34 34 33 39 39 39 38 27 34 30 21 15 15 14 13 14 14 12 12 10 8 7 7 7 7 7 8 8 8 8 8 7 5 5
12 12 13 13 14 14 15 15 16 16 17 17 16 16 16 15 15 17 20 17 13 12 14 24 20 20 16 12 12 13 13 13 11 10 9 9 9 8 7 6 6 6 7 7 7 7 8 7 6 4 4 4 4 5
9 10 11 12 12 13 13 14 14 14 15 14 14 14 14 13 12 10 10 10 10 10 11 12 13 13 13 14 14 12 10 9 7 7 8 9 8 6 6 6 7 7 7 7 6 5 4 4 4 4 4 4 5 5
7 7 8 8 10 10 11 12 12 13 13 14 14 13 12 12 12 11 10 10 10 13 12 11 11 10 9 9 8 7 6 6 6 6 6 6 7 7 7 7 6 6 4 4 4 4 4 4 4 4 5 5 5 6
6 6 6 6 6 7 7 8 7 8 8 8 8 8 8 8 7 6 6 7 8 9 7 6 7 7 6 6 5 6 6 6 6 5 6 6 6 6 5 4 4 4 4 4 4 4 4 4 5 5 5 5 5 5
5 4 5 5 5 6 6 6 6 6 6 6 5 5 4 4 5 4 6 7 6 5 5 6 6 5 5 6 6 7 6 5 5 5 4 4 4 4 4 4 4 4 4 4 5 4 4 4 5 5 5 5 5 5
4 4 4 5 5 5 4 4 4 4 3 3 3 3 4 5 5 6 8 7 5 5 5 5 5 5 6 6 4 3 3 3 4 4 3 4 4 4 4 4 4 4 5 4 4 4 5 5 5 5 5 4 5 5
4 4 5 4 4 4 3 3 3 3 3 4 4 5 5 5 6 7 6 3 3 3 3 3 3 4 4 3 3 4 4 4 4 4 3 4 4 5 5 5 5 4 4 4 4 5 5 5 5 5 5 5 5 5
4 4 4 2 2 2 2 3 3 3 3 4 4 3 2 3 4 4 2 2 3 4 3 3 3 3 3 3 3 4 4 4 4 4 4 5 5 5 4 4 4 4 4 5 5 5 5 5 5 5 5 5 5 5
3 2 2 2 2 2 3 3 3 3 2 2 2 2 3 4 3 3 3 3 3 3 3 3 3 3 3 3 4 4 4 4 4 4 4 4 4 4 4 4 5 5 5 5 5 5 5 5 5 6 6 5 5 6
2 2 2 2 3 3 3 2 2 2 2 3 4 3 3 3 3 3 3 3 3 3 3 3 3 3 3 4 4 3 3 3 3 3 3 4 4 4 5 5 5 5 5 5 5 5 5 5 6 6 6 5 5 5
3 3 3 3 2 2 2 2 3 3 3 3 3 3 3 3 3 3 3 3 3 3 3 3 3 3 3 3 3 3 4 4 4 4 4 4 4 4 4 4 4 5 5 5 5 5 6 6 5 5 5 5 5 5
2 3 3 2 3 2 2 3 2 2 2 2 2 2 2 2 3 3 2 3 3 3 3 3 3 3 3 3 3 4 4 4 4 4 4 4 4 4 4 5 5 5 5 5 5 5 5 5 5 5 4 4 3 3
2 2 2 2 2 2 2 2 2 2 2 3 3 3 3 3 3 3 3 3 3 3 3 3 3 3 3 3 3 4 4 4 4 5 5 5 5 5 5 5 5 5 5 5 5 5 4 4 3 3 3 3 3 4
3 3 3 3 3 3 3 3 3 3 3 3 3 3 3 3 3 3 4 4 3 3 4 4 4 4 4 5 5 5 5 5 5 5 5 4 4 4 4 5 5 5 4 4 4 3 3 3 3 3 3 3 3 3
4 4 4 4 3 3 4 3 3 3 3 3 3 4 4 4 3 4 4 5 5 5 5 5 5 5 5 5 5 4 4 4 4 4 4 4 5 4 4 4 3 3 3 3 3 3 3 3 3 3 3 3 3 3

GFSWCAN_250_rhum_012.txt.gz
RH
90 88 99 100 100 86 100 100 100 100 100 100 100 100 100 100 100 100 100 100 100 100 81 62 80 82 72 73 79 80 74 69 56 54 57 50 49 48 46 46 54 49 49 52 64 59 55 48 38 36 42 47 50 53
72 78 95 100 100 95 100 100 100 100 100 100 100 100 100 100 100 100 100 96 57 54 91 100 99 95 87 79 65 78 81 75 62 70 57 52 47 46 44 41 47 52 73 77 63 48 39 35 46 60 56 51 56 71
51 71 83 94 100 100 100 99 77 98 100 100 100 98 85 72 71 54 54 72 93 100 100 100 100 100 97 77 70 59 59 53 60 57 60 51 48 54 56 64 69 69 70 64 51 58 52 57 66 64 86 92 99 79
59 64 87 98 95 100 100 100 100 96 88 80 88 86 94 100 89 70 88 84 71 85 76 86 100 94 68 63 56 63 65 70 73 78 80 83 68 54 53 46 54 63 70 56 45 58 52 74 85 99 87 74 65 82
67 68 83 86 87 99 100 100 100 100 93 99 97 91 90 94 94 96 98 100 98 87 94 99 89 98 92 70 70 70 71 65 70 71 66 58 55 54 53 50 53 98 91 68 59 72 73 96 90 80 75 79 94 100
80 82 92 90 86 82 89 100 100 100 96 100 100 100 73 64 75 93 100 100 100 85 61 58 72 100 100 94 84 77 63 49 52 57 57 64 69 74 73 91 100 100 97 88 85 97 100 100 81 76 84 84 88 90
66 69 86 98 85 77 79 62 84 86 97 96 100 100 82 87 80 84 79 89 83 79 76 82 88 97 95 88 80 73 66 63 65 80 88 94 99 94 94 100 100 97 96 97 95 93 82 80 89 89 84 94 91 95
75 75 61 83 96 79 88 55 60 75 81 93 99 100 100 86 72 86 76 72 95 100 99 73 72 100 100 100 96 100 100 93 86 87 80 75 66 90 98 100 91 91 98 99 94 93 100 100 92 83 88 88 90 92
67 85 86 61 65 87 86 89 75 53 63 62 79 86 83 98 100 96 94 82 82 92 92 87 100 100 100 100 100 100 100 100 94 81 89 96 100 100 100 93 94 100 100 99 96 92 92 94 93 81 82 96 86 68
75 63 82 84 83 82 77 81 72 77 68 47 72 74 84 90 96 92 99 100 93 86 94 94 100 96 85 79 88 77 70 77 83 76 80 98 100 83 63 64 68 85 89 80 70 72 73 69 72 88 81 66 49 46
98 82 66 74 97 100 93 85 85 77 67 67 60 50 78 100 100 93 87 70 59 58 57 76 71 62 54 64 66 63 59 61 66 66 68 70 72 67 67 76 80 85 87 79 82 73 81 85 76 69 54 43 41 32
96 98 86 73 68 86 92 95 100 100 100 90 78 87 81 72 92 100 100 100 100 87 77 79 79 85 84 75 71 74 72 68 73 68 67 62 78 74 71 71 73 85 74 68 65 64 56 50 44 36 30 26 20 15
71 72 70 73 81 69 61 70 79 80 93 100 100 99 82 82 74 64 73 73 85 100 97 94 94 96 99 99 91 77 70 74 71 76 87 87 73 63 68 79 76 75 65 50 40 39 33 24 23 21 15 13 11 9
48 69 65 69 74 66 70 71 71 65 72 100 99 100 100 100 97 100 92 87 95 99 84 65 71 88 100 92 78 76 86 99 88 68 63 63 61 66 70 71 58 44 34 27 34 27 19 15 15 14 12 8 8 8
29 36 33 47 57 44 43 55 64 75 68 66 67 80 87 97 100 96 98 100 99 89 77 84 92 94 100 98 100 100 100 96 98 87 71 66 68 69 67 53 26 15 15 16 15 14 14 13 10 8 8 7 7 7
34 47 49 27 19 23 38 57 60 63 55 72 66 68 69 69 68 79 99 98 91 100 97 100 100 100 100 100 100 94 79 60 54 57 60 66 55 37 19 12 14 14 13 12 12 10 8 7 6 6 6 7 7 7
16 17 17 16 16 16 16 20 32 47 47 72 94 88 87 74 66 59 60 69 83 92 99 98 94 86 83 79 77 67 55 56 60 59 47 33 17 10 11 13 12 12 10 8 8 8 7 6 6 6 7 6 6 5
13 14 15 15 15 16 16 16 17 18 21 24 24 23 24 27 36 46 48 52 59 63 69 76 71 67 65 56 51 55 54 43 31 22 15 15 13 12 12 12 11 8 7 7 7 6 6 6 6 6 5 4 4 4
11 11 12 13 14 15 16 16 17 19 20 21 21 21 21 20 19 20 25 32 38 40 43 58 60 56 33 22 18 16 14 12 11 11 11 12 13 12 9 6 6 6 6 6 6 6 6 5 4 4 4 4 4 4
9 9 10 10 11 12 14 15 15 15 16 15 15 15 15 16 15 15 14 14 14 14 16 17 15 12 11 12 12 12 12 12 12 11 11 10 8 6 6 6 6 6 6 6 5 4 4 4 4 4 4 4 4 5
8 9 9 10 10 10 10 11 11 12 13 14 13 13 12 11 11 10 10 10 11 13 12 12 11 12 12 12 12 11 10 8 7 7 7 7 7 6 6 6 6 5 4 4 4 4 4 4 4 4 4 4 5 5
8 9 9 9 9 9 9 10 10 10 9 10 10 9 9 9 9 9 9 11 12 12 11 10 9 9 10 9 7 6 6 6 6 6 5 4 5 6 5 4 4 3 3 4 4 4 4 4 4 4 4 5 5 5
6 7 7 8 8 8 8 8 7 7 6 7 6 6 7 7 6 6 7 8 8 7 7 7 7 6 6 5 5 6 6 6 5 4 4 4 3 3 3 3 4 4 4 4 4 4 4 4 4 5 5 5 5 5
5 6 6 6 6 6 5 5 5 4 4 4 4 5 5 6 6 7 8 7 6 5 4 4 4 4 5 5 6 6 4 3 2 3 3 4 4 4 4 4 4 4 4 4 4 4 4 5 5 5 6 6 6 6
4 4 5 4 5 4 4 4 3 3 3 4 5 6 6 5 6 6 6 4 3 3 3 4 4 5 4 3 2 2 2 3 4 4 3 4 4 4 4 4 4 4 4 4 5 5 5 5 5 5 6 6 6 5
4 4 4 3 3 3 3 3 3 4 4 4 4 4 4 4 5 5 3 2 2 3 3 3 3 2 2 3 3 3 4 4 3 3 3 4 4 4 4 4 4 4 5 5 5 5 5 5 5 5 5 5 5 5
4 3 3 3 4 4 5 5 5 4 3 2 2 2 3 4 4 2 2 3 3 3 3 2 3 3 3 3 3 4 3 3 3 3 3 4 4 5 4 4 4 4 4 4 5 5 5 5 5 5 5 5 5 5
3 3 3 3 3 3 3 2 2 2 2 2 3 4 3 3 3 3 3 3 3 3 3 3 3 3 3 3 4 4 3 3 4 4 4 4 4 4 4 4 4 4 4 5 5 5 5 5 5 5 5 5 6 6
3 3 3 3 3 3 3 2 3 3 4 4 3 3 3 2 3 3 3 3 3 3 3 3 3 3 3 3 3 3 4 4 4 4 4 4 4 4 4 4 4 5 5 5 5 5 4 5 5 6 6 5 5 4
3 4 4 3 3 3 2 3 3 3 2 3 3 3 2 2 3 3 2 3 3 2 3 3 3 3 4 4 4 4 4 4 4 4 4 4 5 5 5 6 6 5 5 4 4 5 5 5 5 4 4 4 3 3
3 3 3 3 2 2 3 2 2 2 2 2 2 2 3 3 3 3 3 3 4 3 3 3 4 4 4 4 4 4 4 4 4 4 4 5 4 4 4 4 4 4 4 4 4 4 4 3 3 3 3 3 3 3
2 3 3 3 3 3 3 3 3 3 3 4 4 3 3 3 3 3 4 4 3 3 3 4 4 4 4 4 4 4 4 4 4 4 4 4 4 4 4 4 4 3 3 3 3 3 3 3 3 3 2 3 3 3
4 4 4 4 4 3 4 4 3 3 3 3 3 3 3 3 3 3 4 4 4 4 4 4 4 3 3 3 3 3 3 3 3 4 4 3 3 3 3 3 3 3 3 3 3 3 3 3 3 3 2 2 3 3

GFSWCAN_250_rhum_015.txt.gz
RH
79 93 100 99 100 100 100 100 100 99 89 87 86 84 79 78 81 77 67 64 61 56 51 50 54 60 69 60 50 55 55 64 53 56 53 52 52 58 70 68 89 70 96 100 89 72 62 60 55 67 71 66 59 61
89 100 100 100 96 100 100 100 100 100 100 100 100 100 99 94 99 93 82 78 77 85 84 85 99 72 53 44 51 77 88 74 58 62 47 46 44 49 50 52 85 78 95 81 71 62 61 53 62 61 54 60 65 84
90 94 100 89 94 96 97 100 100 100 100 100 100 100 100 100 100 100 100 100 100 100 100 99 76 54 56 71 73 73 68 49 52 54 51 50 49 56 64 78 73 70 71 60 47 56 51 60 56 63 77 89 87 90
65 90 100 100 92 99 100 100 100 100 94 98 100 100 100 100 100 100 100 100 100 100 66 62 65 87 97 98 87 79 78 75 74 75 66 62 69 86 88 73 60 74 71 55 53 60 58 79 91 84 88 84 78 84
66 72 97 100 99 97 100 100 100 100 100 98 82 90 100 100 100 100 100 94 77 78 76 82 98 100 100 98 98 95 99 97 90 82 78 76 94 85 80 87 89 92 66 58 55 77 84 97 85 85 84 84 97 99
65 56 63 92 100 97 99 100 100 100 100 100 100 100 100 95 97 96 95 100 100 99 92 100 97 100 100 100 100 100 90 85 90 100 100 100 98 84 66 67 90 91 74 82 91 100 92 78 92 91 85 84 98 95
74 81 53 64 75 88 89 92 96 95 100 100 100 100 100 100 100 100 100 100 100 94 99 99 91 100 100 100 100 100 100 100 97 87 82 95 100 89 79 90 100 92 74 82 88 88 89 87 92 98 88 95 92 71
40 74 76 50 52 59 73 73 76 86 92 100 100 100 100 98 100 100 100 98 100 91 89 79 76 83 92 100 100 98 97 88 82 81 87 98 88 100 93 93 77 72 83 88 92 92 99 100 98 95 96 88 94 100
53 44 57 60 50 54 70 68 60 64 72 95 96 99 100 95 93 99 93 92 92 96 80 70 80 84 92 92 87 98 100 100 93 97 100 97 99 98 94 90 80 80 96 96 93 97 87 85 91 100 100 100 98 81
79 64 44 41 44 48 82 70 67 62 52 76 92 100 100 100 95 100 98 89 84 77 79 68 86 85 90 94 94 97 96 97 99 100 100 99 94 98 96 98 100 100 100 98 91 91 77 76 95 100 97 62 55 53
77 82 85 56 45 44 61 78 80 81 74 71 74 83 90 94 91 88 92 85 74 69 73 73 70 66 67 68 71 71 72 74 70 66 69 66 68 67 70 74 76 77 73 71 76 80 73 62 78 90 76 58 49 35
75 78 81 89 65 53 49 44 48 63 70 77 79 87 89 93 81 75 81 71 61 61 66 75 78 72 58 48 46 46 44 46 48 54 56 55 60 65 64 66 67 56 61 79 74 64 78 82 72 55 46 34 20 15
74 76 91 96 87 79 76 67 56 54 56 65 68 79 65 63 63 74 75 77 84 80 76 86 81 74 76 74 76 79 77 74 69 70 74 74 71 69 71 72 73 81 82 72 63 70 72 61 47 45 18 13 13 12
48 59 74 83 86 79 84 87 84 87 80 71 65 60 54 54 56 60 60 66 71 74 81 83 81 81 87 90 98 100 99 92 98 100 86 69 72 80 79 84 86 80 65 61 59 60 58 35 18 13 13 12 10 7
58 53 60 76 84 91 99 100 91 88 91 95 86 86 82 93 88 80 80 87 90 91 93 92 93 96 100 100 100 100 98 95 93 76 72 76 79 90 97 88 73 59 50 54 59 48 26 14 13 12 12 9 6 6
19 44 64 54 73 77 67 70 82 92 98 100 100 99 100 94 98 99 86 90 98 100 95 89 92 92 88 88 91 98 89 80 67 64 64 70 67 58 48 43 40 40 42 34 16 13 13 12 10 8 7 6 6 6
11 12 26 56 56 50 53 84 99 92 79 80 70 52 74 83 89 100 88 84 96 98 87 77 80 87 73 67 79 65 60 56 53 44 37 34 35 32 27 27 26 20 16 14 12 12 10 8 7 6 6 6 5 4
9 11 19 23 27 30 39 39 28 30 36 32 30 40 49 49 60 61 71 78 73 64 56 60 47 42 43 41 37 28 26 25 22 20 19 19 19 17 13 13 13 12 12 11 8 8 7 6 5 5 5 4 4 4
10 11 12 18 35 32 21 20 24 34 39 26 20 22 23 27 30 30 42 46 38 31 23 21 21 20 17 14 15 16 14 15 14 14 14 13 13 13 12 12 10 8 6 6 6 6 5 5 4 4 4 4 4 4
10 10 12 13 13 14 15 17 17 17 17 16 16 16 19 21 22 25 28 25 20 18 19 20 18 15 15 16 15 15 15 14 12 12 14 14 12 11 9 6 5 5 6 6 6 5 4 4 3 4 4 4 4 5
10 11 10 9 10 11 12 13 12 12 12 12 12 12 12 12 13 13 13 13 14 17 15 14 14 14 13 14 13 12 12 11 11 10 10 9 8 6 6 5 5 6 6 5 3 3 4 4 4 4 4 5 5 5
7 7 7 8 8 8 8 9 10 10 10 10 10 9 10 10 10 10 10 11 12 12 11 12 12 11 11 11 10 9 8 7 6 6 6 5 5 5 5 6 5 4 3 3 4 4 4 4 4 4 5 5 5 6
6 6 7 7 7 8 9 8 8 7 8 8 7 8 8 8 8 8 9 9 10 10 10 9 8 7 6 6 5 5 5 5 5 4 4 4 4 5 4 3 3 4 4 4 4 4 4 4 4 5 5 5 6 6
7 7 8 7 7 7 6 6 6 6 6 6 6 6 7 7 7 7 8 8 7 6 5 5 4 5 4 4 4 5 5 5 4 4 3 4 4 3 3 4 3 4 4 4 4 4 5 4 5 5 5 6 6 5
5 6 6 6 6 5 5 4 4 4 4 4 5 6 6 6 6 6 6 5 3 3 3 3 3 4 4 5 5 4 4 3 3 4 3 3 4 4 4 3 3 4 4 4 4 4 5 5 5 5 5 5 5 5
4 4 4 4 4 4 4 4 4 4 5 6 6 5 4 4 4 4 4 3 3 3 3 4 4 4 4 3 2 2 3 3 3 3 3 3 4 4 4 3 3 3 4 5 5 5 5 5 5 5 5 6 6 5
4 3 3 3 3 4 4 5 5 5 4 3 3 3 3 4 5 4 4 4 4 3 3 2 2 2 3 3 3 3 3 3 3 3 3 3 4 4 4 4 4 4 5 5 5 5 5 5 6 6 6 5 5 5
3 3 3 4 4 4 4 4 3 3 3 3 4 5 5 4 3 2 2 2 3 3 2 2 3 4 3 3 3 3 3 3 3 3 3 3 4 4 5 5 4 4 4 4 5 6 6 6 5 5 5 5 5 5
4 4 4 4 4 4 4 4 4 3 3 3 3 3 3 2 2 2 3 3 3 3 3 3 3 3 3 3 3 3 3 3 4 4 4 4 4 4 4 4 5 5 5 5 5 5 4 4 5 5 5 4 4 3
3 3 3 3 3 3 3 3 3 3 3 3 3 3 3 2 3 4 3 3 3 3 3 2 2 3 3 4 4 4 4 4 4 4 4 4 5 5 6 6 6 6 5 5 5 5 5 4 4 4 3 3 3 3
3 3 3 3 3 3 3 3 3 3 3 2 2 3 3 3 3 3 3 3 3 3 3 3 3 3 4 4 4 4 4 4 5 5 5 5 5 4 4 4 4 4 4 4 4 4 3 3 3 3 3 3 3 3
3 3 3 3 2 2 2 2 2 2 2 2 3 3 4 4 4 4 4 4 4 4 3 3 3 4 4 4 4 4 5 5 4 4 4 4 4 4 4 3 3 3 3 3 3 3 3 3 3 2 2 2 2 2
3 3 3 3 3 4 4 4 4 4 4 4 4 4 4 4 4 3 4 4 4 4 4 4 4 4 4 3 3 3 3 3 4 4 4 3 3 3 2 2 2 3 3 3 3 3 3 3 3 2 2 2 2 3

GFSWCAN_250_rhum_021.txt.gz
RH
66 83 92 100 76 79 98 100 100 100 83 79 82 91 98 100 97 100 100 100 100 97 97 98 98 97 98 99 92 86 82 76 72 72 60 53 44 44 52 62 68 81 70 60 49 44 50 43 51 58 60 72 88 91
62 70 99 97 98 67 68 100 100 100 100 100 100 100 99 97 94 99 100 100 100 100 99 98 99 99 93 83 76 76 74 69 63 75 80 64 50 59 60 63 77 97 80 47 40 64 64 69 78 85 96 93 92 86
68 80 92 86 97 96 88 79 100 100 100 100 100 100 100 96 94 97 100 100 100 84 89 97 98 98 92 80 75 72 66 78 99 88 71 55 57 48 52 56 65 89 68 49 44 71 66 73 92 91 85 76 85 82
73 81 72 90 86 84 99 95 80 99 100 100 100 100 100 100 98 94 93 92 78 79 81 81 81 81 87 75 69 76 99 100 100 87 71 62 51 50 49 55 65 78 75 72 85 91 90 97 91 91 92 92 81 87
90 78 68 74 81 87 100 100 98 83 98 100 100 100 100 99 98 98 95 89 90 90 92 94 88 91 88 88 97 100 100 95 79 69 58 62 77 58 69 80 100 100 89 78 85 76 84 86 80 84 86 87 81 79
100 99 72 67 73 88 92 100 100 100 100 93 95 100 100 100 100 99 81 83 88 88 83 90 93 100 100 100 100 100 100 73 57 60 68 83 97 81 68 83 93 84 80 86 100 100 90 96 91 79 72 83 79 75
87 95 92 76 77 81 86 96 100 88 89 92 100 100 100 100 100 100 100 100 100 100 100 100 100 100 100 87 76 76 78 81 81 90 98 99 77 69 77 93 90 96 100 99 93 94 90 77 69 68 75 89 79 79
85 97 100 98 73 75 100 85 89 96 90 99 100 100 100 100 100 95 100 100 100 100 96 77 83 98 100 100 100 100 100 89 77 84 90 93 92 96 98 100 100 100 98 99 99 88 78 75 67 65 72 78 75 54
74 93 96 100 89 97 99 88 75 74 92 100 98 98 100 94 100 100 100 100 100 96 86 90 100 100 100 100 100 100 100 100 99 90 97 100 94 98 100 100 100 100 100 96 80 70 72 72 66 72 76 59 52 48
56 81 93 98 98 91 80 95 100 99 89 93 100 97 85 90 89 94 100 100 100 100 100 99 100 95 100 100 99 100 97 94 89 91 96 97 100 100 100 100 100 84 72 77 76 72 65 66 68 61 54 42 43 30
38 61 87 96 100 90 81 79 82 90 94 88 87 90 98 86 73 80 96 97 95 80 70 78 82 84 97 96 97 90 86 84 88 90 91 86 84 82 80 76 68 70 65 58 51 60 65 58 45 41 35 37 36 23
27 37 56 84 100 97 90 83 78 74 59 56 60 77 90 99 94 90 83 67 67 68 70 79 90 84 78 76 80 79 82 72 64 60 58 60 70 73 70 68 58 52 47 54 56 57 75 67 47 35 28 28 22 19
25 30 45 60 68 76 89 96 94 98 84 74 62 58 71 81 73 75 85 79 78 77 70 69 72 75 78 74 72 74 70 67 60 55 53 45 44 53 56 55 50 52 54 60 79 67 50 36 30 32 22 16 16 16
26 22 35 42 59 71 81 83 79 78 92 99 91 76 71 68 64 65 73 69 62 63 65 64 59 60 62 61 61 62 63 67 66 58 52 46 47 51 54 64 59 57 72 74 66 40 30 22 22 19 16 14 14 13
23 25 32 40 58 79 82 92 91 77 76 79 78 92 83 76 72 72 76 80 75 69 66 69 67 57 55 60 64 62 58 56 55 54 57 61 64 63 60 59 68 82 71 50 38 25 20 18 16 15 14 13 12 9
15 21 38 39 50 64 64 78 86 93 96 80 70 75 83 78 83 89 87 83 80 73 71 73 68 64 64 64 70 75 78 74 64 64 68 67 72 62 60 69 78 57 47 30 24 17 14 13 13 12 12 10 7 6
12 24 46 49 57 42 45 52 62 78 100 100 100 100 90 88 87 82 74 89 80 78 83 83 86 86 83 85 86 82 72 73 78 78 98 90 74 68 51 41 36 27 20 20 13 11 12 11 10 9 8 6 7 6
14 22 29 45 55 54 52 51 52 53 70 73 79 74 75 90 100 97 88 93 95 91 85 87 97 94 93 82 70 70 70 70 76 73 56 47 36 27 22 20 18 21 17 11 11 11 10 9 8 6 6 6 6 4
13 13 20 29 34 38 48 48 55 48 43 51 56 57 58 70 74 69 78 76 83 88 75 83 78 74 68 63 56 63 58 44 38 31 24 21 19 17 16 16 14 10 11 10 10 8 8 7 5 5 5 5 4 4
8 10 10 10 12 17 24 30 32 31 49 57 33 30 32 43 48 53 60 60 55 49 55 64 56 41 43 49 44 32 23 16 15 16 17 18 16 14 10 9 10 10 9 8 6 6 6 5 5 4 3 4 4 4
7 8 8 8 9 9 9 10 11 12 14 16 17 16 13 13 19 26 32 27 29 38 28 24 31 27 21 18 14 14 15 11 12 13 13 13 10 10 10 9 8 6 5 6 6 5 4 4 4 4 4 4 4 4
6 7 8 8 9 9 10 9 10 10 10 11 11 11 12 12 12 12 13 16 21 22 18 19 15 14 15 15 12 10 9 9 9 9 9 9 10 9 8 6 5 6 7 6 4 4 4 3 4 4 4 4 4 4
5 6 7 9 10 10 11 11 10 9 9 9 9 10 10 11 11 11 12 15 13 11 11 10 10 10 9 9 8 8 8 9 9 9 8 7 7 5 5 5 5 6 6 4 4 4 3 3 3 3 4 4 4 4
7 8 10 11 11 11 11 10 10 9 9 9 8 8 8 7 6 7 9 10 9 8 8 7 7 8 8 8 8 8 8 7 7 7 6 5 4 4 5 5 4 3 3 4 4 4 3 4 3 4 4 4 4 4
9 9 8 8 9 8 7 6 6 6 6 5 5 5 6 6 7 8 9 9 7 6 6 7 7 7 7 7 6 7 6 6 5 5 4 4 5 5 4 3 3 3 3 4 4 3 3 4 4 4 4 4 5 5
5 5 5 5 4 5 5 4 4 4 5 5 6 6 6 6 6 6 6 4 5 6 6 6 5 5 5 5 5 4 4 4 4 4 4 3 2 3 4 3 3 3 3 3 3 4 4 4 4 4 5 5 5 5
4 3 3 3 4 4 4 5 5 5 5 5 5 5 4 5 5 5 5 5 4 4 4 4 4 4 4 4 4 3 3 3 3 3 3 3 3 3 3 3 3 3 3 4 4 4 4 4 5 5 4 4 4 4
3 3 4 4 5 5 5 4 4 4 4 4 4 4 4 3 3 3 4 4 4 4 4 4 3 3 3 3 2 2 2 2 3 3 3 3 3 2 3 3 4 4 4 4 4 4 4 4 4 4 4 3 3 3
4 4 4 4 4 4 3 4 4 4 4 3 3 3 4 3 4 4 4 4 3 3 3 3 2 3 3 3 3 3 3 2 2 3 3 3 3 3 3 3 4 4 4 4 4 4 4 4 4 3 3 3 3 3
3 3 3 3 4 4 4 4 3 4 4 4 4 4 3 4 4 3 3 3 3 3 3 3 3 2 2 2 2 3 3 4 4 4 4 4 3 4 4 4 4 4 4 4 4 4 3 3 3 3 3 3 3 4
4 4 4 3 3 4 4 4 4 3 3 4 4 4 3 3 4 3 3 3 3 3 3 3 3 3 3 3 3 3 4 4 4 4 4 4 4 3 3 3 3 3 3 3 3 3 3 3 3 3 4 4 4 4
4 4 4 3 3 4 4 3 3 3 3 3 3 3 3 3 3 3 3 3 4 4 4 4 4 4 4 3 4 4 3 3 3 3 3 3 3 3 3 3 3 3 2 2 3 3 3 3 3 4 4 4 3 3
3 3 3 3 3 3 3 3 2 3 3 3 4 4 4 4 4 4 4 3 3 3 3 3 3 3 3 3 3 3 3 3 3 3 3 3 3 2 2 2 2 2 2 2 3 3 3 3 3 3 3 3 2 2

GFSWCAN_250_rhum_024.txt.gz
RH
76 71 85 96 100 100 100 100 100 100 100 100 100 97 90 86 96 93 99 100 100 100 100 100 100 100 100 92 88 87 81 71 71 83 82 80 83 81 88 95 73 63 49 45 44 50 45 49 49 46 47 56 76 92
62 61 78 92 90 100 89 100 100 100 100 100 100 100 100 97 84 84 72 88 100 100 100 100 100 100 100 97 93 90 93 93 86 80 76 74 76 78 100 89 83 81 60 47 46 57 48 48 50 61 79 84 77 78
77 58 60 80 92 97 96 82 100 100 100 100 80 90 99 96 100 100 93 97 100 100 98 89 97 97 100 97 82 86 96 95 90 88 77 73 78 100 99 80 78 68 58 55 55 63 51 66 75 82 80 82 77 79
92 70 54 73 100 91 99 100 83 98 96 100 87 68 78 80 87 100 100 100 100 88 76 84 86 88 88 87 85 72 81 92 85 86 84 79 100 100 96 79 64 65 63 54 65 64 72 94 98 92 81 85 100 100
100 91 65 65 87 91 94 94 92 78 65 82 98 95 96 98 89 81 85 98 100 95 92 97 86 82 79 75 73 67 74 81 88 89 89 100 100 73 59 58 94 88 73 59 68 78 88 80 80 87 100 100 99 80
90 85 86 75 67 66 82 97 100 100 92 80 80 100 100 100 100 100 100 93 93 98 100 100 94 81 82 96 99 92 86 88 93 96 100 85 69 70 66 72 90 65 75 84 85 79 83 95 100 100 94 92 85 72
99 97 100 94 73 70 70 92 98 100 100 100 95 84 93 99 99 94 91 100 97 95 94 92 91 93 95 94 97 100 99 100 99 70 58 75 89 71 68 87 72 78 84 90 92 92 93 95 81 78 95 83 68 67
100 100 100 99 98 96 73 67 89 100 100 100 100 100 100 100 93 85 96 100 99 100 100 99 100 100 100 100 100 100 89 76 70 68 77 76 62 73 77 90 93 91 89 84 88 86 76 72 67 61 54 55 59 71
98 100 100 99 94 98 99 81 89 99 100 100 100 100 100 96 95 100 100 100 100 100 97 84 96 100 100 100 100 100 77 72 62 64 56 53 64 84 97 84 89 92 92 95 95 89 77 66 63 63 65 64 63 58
66 93 100 100 100 96 93 100 92 99 100 100 100 96 92 90 88 100 100 92 90 82 65 75 100 99 100 100 100 100 100 94 77 78 72 64 74 92 91 95 95 96 100 100 94 82 76 72 67 63 63 54 54 54
47 79 98 100 100 100 100 99 93 99 95 88 83 90 96 96 100 99 96 91 85 79 78 76 80 83 84 85 90 88 81 75 73 78 83 82 93 97 98 100 100 100 100 97 81 75 68 64 62 67 70 70 52 45
35 36 55 90 99 100 100 100 100 100 92 91 84 98 91 90 98 97 92 90 88 78 82 99 100 96 89 90 85 81 80 76 71 75 78 83 86 82 82 87 92 84 67 62 59 85 85 85 79 70 59 44 36 31
28 28 26 39 69 80 88 100 100 100 100 100 98 99 100 87 78 69 78 80 79 82 91 98 94 91 96 93 92 93 86 87 90 88 85 85 80 80 83 82 71 62 64 69 77 90 86 68 60 49 38 29 21 17
23 30 30 30 38 48 62 83 100 100 100 100 100 100 100 97 82 77 74 72 76 86 95 94 82 72 76 80 85 91 86 81 78 85 91 80 73 71 73 70 62 66 71 78 72 65 61 55 42 33 22 16 17 16
16 18 25 36 29 41 46 55 86 100 100 100 100 100 93 87 88 81 75 77 76 68 73 76 74 77 75 81 79 73 71 60 60 72 73 67 72 73 65 63 67 67 64 66 55 46 40 32 27 19 16 15 13 11
14 14 15 17 32 49 58 58 63 67 86 100 100 100 100 100 85 77 78 80 78 76 73 75 75 72 73 72 64 64 59 65 68 65 65 66 68 79 73 65 63 55 52 47 38 31 31 22 14 12 13 12 10 8
10 13 14 14 20 42 42 36 40 50 55 75 95 100 100 100 100 100 100 91 85 82 76 75 72 66 66 65 68 66 69 72 75 74 82 78 64 64 55 47 46 45 45 40 29 22 14 12 12 10 10 10 8 6
9 10 13 14 15 18 27 40 33 36 54 65 62 65 89 100 100 100 100 99 98 95 89 93 93 88 78 73 70 66 62 63 63 56 53 60 55 42 32 31 36 30 27 19 15 12 11 10 10 9 9 7 6 6
10 10 11 13 15 16 17 18 19 23 41 51 47 52 55 61 73 77 82 88 89 88 93 90 84 80 70 64 59 51 44 38 38 38 40 36 26 25 27 27 21 16 14 12 10 10 10 9 8 7 6 5 6 4
9 10 10 10 13 14 15 16 16 16 18 21 29 39 49 61 66 63 60 68 77 74 74 68 54 49 52 49 38 30 25 22 22 23 26 17 15 15 14 13 11 11 9 8 8 8 8 7 6 4 5 5 4 4
8 9 10 9 8 9 11 12 12 14 13 14 17 25 33 34 43 58 63 69 81 86 64 60 56 43 34 30 26 26 23 17 14 14 15 15 13 15 13 9 8 7 7 7 6 7 7 5 4 4 4 4 4 4
6 6 7 8 8 7 7 7 8 9 9 10 12 13 17 21 26 31 34 38 36 27 29 28 24 25 22 20 18 17 13 12 12 12 11 10 10 9 8 6 6 6 6 6 6 6 4 4 4 4 4 4 4 4
5 6 6 6 6 6 7 8 9 9 10 9 8 10 13 15 16 15 24 28 21 22 25 22 21 23 15 11 10 9 9 9 9 8 8 7 7 7 6 6 5 5 5 5 4 4 3 3 4 4 4 4 4 4
5 5 6 6 7 8 7 8 8 9 9 9 10 10 10 10 10 11 12 12 10 9 10 10 10 9 10 10 10 9 8 7 7 7 7 6 6 5 5 5 4 4 4 4 4 3 4 4 3 3 3 4 4 5
6 6 7 8 8 9 9 10 11 11 11 11 10 9 9 8 9 10 11 10 8 8 8 8 8 8 8 8 7 6 6 6 6 6 6 4 4 4 4 4 4 3 3 3 3 4 3 3 3 4 4 4 5 5
7 8 8 8 9 10 10 9 8 7 6 5 5 5 6 8 8 9 8 7 7 6 6 6 6 6 6 6 6 5 5 5 5 4 4 4 3 4 4 3 3 3 3 3 3 3 4 4 4 4 4 5 5 4
5 6 6 6 6 6 6 5 6 6 5 6 6 6 6 6 6 6 6 7 6 6 5 5 5 5 5 5 4 4 4 4 4 4 4 3 3 4 4 4 3 3 3 4 4 4 4 4 4 4 4 4 4 4
4 4 5 5 5 6 5 5 5 6 6 6 5 5 5 5 6 6 5 5 5 4 4 4 4 3 4 4 4 4 3 3 3 3 3 3 3 3 3 3 3 3 3 4 4 4 4 4 3 3 4 4 3 3
5 5 5 5 5 5 4 5 5 4 4 4 4 4 4 4 4 4 3 3 3 4 4 4 4 4 3 3 3 3 3 3 3 2 3 3 3 4 4 3 3 3 3 4 4 3 3 3 3 3 3 3 3 3
4 4 4 3 3 3 3 3 3 3 3 3 3 3 3 4 3 3 3 4 4 3 3 3 3 3 3 3 2 2 2 3 4 4 4 3 3 4 4 4 3 3 3 3 3 3 3 3 3 3 2 3 3 3
3 3 3 4 4 4 3 3 3 3 3 3 4 4 4 4 4 3 3 3 3 3 3 3 3 3 3 3 3 3 3 3 3 4 4 3 3 3 3 3 3 3 3 3 2 2 2 2 2 2 3 3 4 4
4 4 4 4 4 4 4 4 4 3 3 3 3 3 3 3 3 3 3 3 3 3 4 4 4 4 4 4 4 4 3 3 3 3 3 3 3 2 2 2 2 2 2 2 2 2 2 2 3 3 4 4 4 4
3 3 2 3 3 3 4 3 3 3 3 3 2 2 3 4 4 4 4 4 4 4 3 3 3 3 3 3 3 3 3 2 2 2 2 2 2 2 2 2 2 2 2 2 2 2 2 3 3 3 3 3 2 2

GFSWCAN_250_rhum_030.txt.gz
RH
98 100 94 100 100 99 100 100 97 99 99 94 92 88 87 100 100 100 100 100 100 95 59 82 89 82 82 90 87 89 94 100 100 97 100 100 100 100 89 85 81 75 79 78 70 68 62 54 52 52 52 46 47 49
94 100 100 100 100 100 87 100 98 100 100 100 97 83 85 89 100 100 100 100 100 89 100 95 100 100 100 100 100 100 100 100 100 100 100 100 83 93 95 86 82 58 62 50 53 66 64 51 37 36 38 42 42 42
92 91 100 100 100 100 100 100 100 100 100 100 99 100 93 96 90 98 100 100 100 86 100 100 88 90 100 100 100 100 100 100 100 100 100 97 100 96 74 79 81 74 71 57 52 69 70 57 49 46 44 42 43 46
91 90 96 100 100 100 100 95 100 100 97 100 100 100 100 99 88 78 89 99 100 100 100 100 100 100 100 100 100 100 100 100 100 100 100 96 87 89 93 88 74 98 90 85 71 69 68 54 54 49 48 47 50 63
96 86 95 100 100 100 100 100 93 100 98 90 95 96 96 98 90 95 94 98 88 86 97 90 72 82 80 69 68 75 80 97 100 100 90 87 86 85 80 81 100 100 100 90 55 66 62 64 62 63 61 66 79 95
96 91 81 100 100 100 100 100 100 98 100 98 87 94 100 97 84 78 76 94 99 90 72 81 80 76 80 85 88 87 88 100 99 95 90 90 91 84 76 97 100 100 100 82 62 59 66 65 65 74 84 86 91 92
89 94 80 93 100 100 99 100 100 100 95 97 100 100 91 86 80 78 87 91 81 75 79 72 72 76 88 92 100 100 96 91 84 79 80 94 93 81 81 99 100 100 76 61 63 67 72 80 84 80 89 94 96 100
84 86 78 89 94 100 92 100 100 100 100 100 90 90 100 100 100 97 100 100 100 98 97 94 100 100 100 100 100 100 100 97 98 94 86 100 88 78 89 100 100 79 65 67 75 85 91 88 86 96 93 98 98 89
83 78 70 73 88 100 100 100 100 100 100 100 100 100 100 100 100 100 100 100 100 100 100 100 100 100 100 100 97 96 91 88 77 78 78 76 83 95 100 100 73 66 78 83 88 85 82 87 92 91 97 88 96 98
77 82 74 78 73 89 97 97 100 100 100 100 100 100 100 100 100 100 99 100 100 100 97 98 100 100 100 100 100 100 98 91 81 89 90 72 65 100 98 78 79 83 81 86 88 92 90 93 94 99 94 98 98 82
69 73 75 71 78 82 84 88 85 94 98 96 98 100 100 100 100 100 96 94 92 90 89 95 100 100 100 95 100 100 94 87 75 69 67 69 78 93 97 95 96 96 97 98 97 98 99 100 100 97 98 100 90 77
64 66 64 71 78 75 80 87 89 89 92 97 100 100 100 100 100 100 100 100 100 100 100 100 100 100 100 100 100 90 82 85 83 85 94 100 100 100 100 99 97 95 98 100 100 100 100 100 97 100 93 82 74 64
44 50 55 69 76 76 78 78 80 95 100 99 92 77 87 99 98 86 100 100 100 100 100 100 100 100 100 96 94 94 91 91 93 92 93 99 100 98 95 92 81 74 77 82 87 88 86 87 84 63 58 61 56 54
41 30 53 70 81 84 78 88 91 87 84 82 84 85 96 88 89 82 83 95 100 96 86 96 100 100 100 100 100 95 87 81 73 72 73 70 71 79 82 78 77 74 68 67 65 57 55 53 52 54 55 53 45 40
44 30 29 49 56 54 64 64 75 84 93 95 96 95 91 90 89 91 92 80 90 100 96 90 86 95 100 96 91 96 99 95 91 91 87 81 81 78 68 57 56 60 60 56 53 48 48 50 52 52 43 35 37 36
32 48 48 36 33 42 41 45 59 67 74 94 93 91 82 85 86 81 84 95 86 76 77 91 93 94 96 95 91 79 79 90 89 76 72 70 64 58 54 55 57 55 53 52 51 51 49 47 39 31 32 37 39 32
22 25 27 28 43 48 32 29 35 49 71 87 98 92 94 99 100 98 99 96 75 68 65 64 73 84 77 74 74 67 63 66 64 58 52 52 54 57 53 54 53 51 46 43 44 46 42 35 34 33 33 32 26 13
15 16 19 21 23 26 30 31 26 28 36 44 59 74 90 93 96 98 98 94 95 85 73 64 60 63 63 61 61 62 59 59 62 64 62 60 59 54 53 52 44 37 34 36 38 36 31 29 27 25 21 16 11 10
13 13 14 15 15 17 18 19 19 20 21 24 29 34 48 62 72 82 91 96 96 94 95 89 78 76 76 75 69 70 70 70 70 72 70 64 57 49 40 34 34 40 46 39 25 22 22 25 21 15 11 9 8 7
10 11 12 13 13 13 14 14 15 15 16 17 18 21 24 31 39 64 77 81 85 83 86 87 85 88 87 87 87 85 81 77 66 56 46 40 40 38 36 42 42 27 19 19 19 18 17 15 12 8 8 6 6 6
9 9 10 10 11 12 13 14 14 15 15 16 16 17 20 23 26 36 45 54 62 62 69 74 80 87 85 85 79 75 67 51 36 34 34 29 26 25 22 17 17 17 17 17 16 14 13 10 7 6 6 6 5 4
8 8 8 8 9 10 11 12 12 13 14 15 15 16 18 21 26 30 32 37 41 45 47 49 56 57 49 42 39 34 31 24 18 19 19 18 16 16 16 16 15 14 12 12 10 10 9 7 6 5 5 4 4 4
7 7 7 7 7 6 7 8 8 9 10 11 12 12 14 14 15 15 16 17 18 19 20 22 22 19 17 16 16 16 16 16 16 16 16 16 15 14 12 11 11 11 10 10 8 7 6 5 4 4 4 4 4 4
5 5 6 6 7 7 7 7 7 7 8 8 8 9 10 10 11 11 12 12 13 13 12 12 12 12 12 12 12 12 13 14 13 12 12 10 10 10 10 10 11 9 7 7 6 5 5 4 4 4 4 4 4 4
6 5 5 6 7 7 7 6 6 6 6 6 6 7 7 7 7 8 8 8 8 8 8 8 8 9 9 10 10 10 9 9 10 10 11 10 9 10 10 8 7 6 5 4 4 4 4 4 4 4 4 4 4 5
6 6 8 7 6 6 6 5 6 6 6 6 6 7 7 7 7 7 7 6 6 6 6 6 6 7 8 9 9 9 9 9 9 10 9 7 6 6 6 5 5 5 4 4 4 4 4 3 3 3 4 4 4 4
5 5 6 5 6 6 7 6 6 6 5 5 6 6 6 5 5 6 5 5 5 6 6 7 8 8 7 7 7 7 7 7 7 6 6 5 5 4 4 4 4 4 4 4 4 4 4 4 4 4 4 4 4 4
6 5 5 5 5 5 5 5 5 5 5 5 4 4 4 4 4 4 5 6 6 7 6 6 6 6 6 6 6 6 5 5 4 4 4 4 3 3 3 4 4 3 3 3 4 4 4 4 3 3 3 3 3 3
5 6 6 6 6 6 6 5 5 4 4 4 5 5 6 6 7 6 6 6 6 5 5 5 5 5 4 4 4 4 4 3 3 3 3 3 3 3 3 3 3 3 4 3 3 3 3 3 3 3 2 2 2 2
3 4 4 4 5 5 5 6 6 6 6 6 5 5 5 5 4 5 4 4 4 4 4 4 4 3 3 3 3 3 3 3 3 4 3 3 3 3 3 3 3 3 3 3 2 2 2 2 3 3 3 2 2 2
4 4 4 4 4 4 4 4 4 4 4 4 4 5 5 4 4 4 4 4 3 3 3 3 3 3 3 3 3 3 3 3 3 3 4 4 4 3 3 3 2 2 2 2 2 3 2 2 2 2 2 2 2 2
3 4 4 4 4 4 4 4 4 4 3 3 4 3 3 3 4 3 3 3 4 3 3 3 3 3 3 3 3 3 3 3 3 3 3 3 2 2 2 2 2 2 2 2 2 2 2 2 2 2 2 2 2 2
3 3 3 3 3 3 3 3 3 3 3 4 3 3 3 3 4 4 4 3 3 3 3 3 4 4 3 3 3 3 3 2 2 2 2 2 2 2 2 2 2 2 3 3 3 3 3 3 2 2 2 2 2 2

GFSWCAN_250_rhum_033.txt.gz
RH
100 100 100 100 100 100 88 100 100 100 100 98 94 82 95 100 100 100 100 100 99 100 100 100 100 76 73 78 70 76 99 90 68 54 84 100 85 85 97 100 100 97 99 96 82 74 62 67 79 81 60 53 48 46
100 100 100 100 100 100 99 100 100 100 100 100 100 95 92 95 100 100 100 100 100 100 99 100 96 75 94 100 99 73 70 95 100 100 95 83 99 100 100 100 100 100 100 80 82 81 60 71 79 84 65 45 46 55
98 100 100 100 100 100 100 100 100 100 100 98 100 97 92 89 93 100 100 100 100 100 100 100 100 100 76 78 100 100 99 81 88 100 100 100 100 100 100 100 100 94 84 83 77 82 73 70 83 70 54 49 53 56
99 100 100 100 100 100 100 95 97 100 100 98 95 98 95 93 90 92 97 100 100 100 100 100 100 100 83 77 94 89 86 100 100 100 100 100 100 98 100 100 100 100 92 80 75 75 52 60 64 56 47 56 63 73
100 100 100 100 100 100 100 100 91 94 100 100 94 91 96 90 90 87 85 94 100 100 100 100 100 100 99 67 99 100 100 100 100 100 91 70 72 88 100 98 100 100 100 94 97 91 73 83 82 66 65 73 82 85
99 100 99 99 100 100 100 100 100 100 95 100 100 90 80 93 97 91 84 88 92 88 96 100 100 100 100 100 91 100 100 96 90 81 79 79 97 96 85 93 100 100 100 100 96 81 89 88 75 66 70 83 84 87
98 100 99 94 93 100 100 90 90 100 100 80 100 93 93 84 91 84 84 79 87 92 80 66 69 74 81 92 100 97 73 77 85 87 97 100 97 81 83 100 100 100 99 100 93 86 84 82 75 73 84 92 95 90
93 91 88 100 94 91 92 100 100 100 100 100 85 99 100 93 82 86 100 94 92 93 89 80 98 85 87 96 97 96 83 78 84 85 84 97 99 92 95 98 98 99 98 92 80 74 77 80 84 89 92 86 83 88
88 92 82 82 92 86 88 98 99 95 100 100 100 96 83 100 98 89 88 87 83 85 89 85 80 82 77 87 96 98 100 100 100 97 97 92 88 81 90 94 90 92 85 75 83 88 93 92 82 80 84 85 84 91
81 82 95 81 82 83 86 98 100 100 99 96 99 100 100 90 83 87 100 100 100 96 89 100 100 100 100 100 100 100 100 100 100 100 97 73 72 98 94 85 82 79 74 82 87 82 80 84 87 91 79 85 97 95
89 72 70 90 79 70 85 100 100 100 99 100 100 100 100 100 100 99 94 94 89 80 81 90 100 100 100 100 100 100 100 98 83 73 72 71 81 100 99 90 88 85 89 90 85 81 90 87 84 84 95 97 92 78
82 88 75 67 76 77 78 88 93 99 100 100 100 100 100 100 100 90 89 99 100 100 98 100 100 100 100 100 100 92 93 90 91 99 100 98 100 100 100 100 100 100 95 95 99 100 97 96 96 99 86 72 57 55
72 74 80 77 69 71 82 87 90 91 100 100 100 100 100 100 100 98 89 100 100 100 100 100 100 100 100 100 100 100 97 96 95 92 93 98 98 93 91 96 99 99 98 98 100 92 87 96 83 64 48 48 53 61
62 70 71 74 73 69 71 82 89 90 95 93 96 96 96 93 88 96 100 94 100 100 100 100 100 100 100 100 100 100 91 87 85 87 88 81 76 77 82 88 93 98 94 86 83 76 62 59 55 48 50 49 45 40
62 64 58 66 68 72 76 74 75 82 84 88 87 88 92 92 86 84 92 100 100 99 99 99 100 100 100 100 99 97 96 95 90 85 83 81 83 87 84 76 77 82 85 79 67 58 54 47 46 49 48 36 27 27
49 45 57 66 68 75 70 68 70 74 80 84 82 83 86 85 84 84 79 78 77 81 93 97 95 90 94 97 95 94 96 95 89 78 75 77 78 73 66 58 61 67 69 65 52 46 42 42 39 42 30 22 20 17
36 47 41 36 45 50 45 45 51 65 74 85 84 83 83 81 75 75 74 73 72 76 78 82 87 93 81 78 84 91 92 93 88 82 85 82 73 67 59 54 51 48 45 44 39 40 33 33 36 24 18 19 16 12
37 42 43 48 48 45 41 32 28 38 54 61 71 77 92 91 91 93 86 76 73 70 63 61 61 66 74 80 78 76 72 67 66 70 69 58 52 51 48 44 40 39 40 40 34 34 42 38 25 17 16 15 13 10
25 28 29 29 30 27 23 23 22 26 28 33 48 66 72 78 83 85 79 76 78 81 79 72 70 75 74 66 61 62 65 62 62 64 59 54 54 50 43 40 40 38 40 45 45 37 25 19 15 14 13 11 10 10
16 17 18 19 20 21 22 22 22 21 20 21 23 29 34 38 39 42 52 56 53 60 66 64 66 63 61 60 59 52 48 47 51 51 48 43 40 44 46 43 42 39 33 29 21 15 14 13 12 11 10 10 9 9
12 12 12 13 14 14 14 14 15 16 16 16 17 19 20 19 20 21 22 24 26 34 41 43 43 37 32 34 36 34 30 29 24 22 23 30 36 35 31 33 32 26 19 16 14 14 13 11 9 9 9 9 8 7
10 10 10 10 10 11 11 12 12 12 12 13 14 15 16 16 17 17 16 16 16 16 17 17 16 16 18 19 19 18 19 20 19 19 22 27 30 24 17 15 14 14 13 11 10 9 10 9 9 8 8 8 6 5
8 8 8 8 8 9 10 11 11 11 12 12 13 13 13 14 14 13 14 13 13 14 13 13 12 12 12 13 13 13 14 14 15 16 16 14 13 13 12 12 11 9 9 9 8 8 8 8 7 7 6 5 4 4
6 7 6 6 6 8 10 9 9 9 10 10 10 10 10 10 10 10 10 11 12 12 11 11 11 11 11 11 12 12 11 11 11 11 10 10 9 10 9 9 8 7 7 7 7 7 7 6 5 4 4 4 4 4
5 5 5 5 6 8 8 8 8 7 7 8 8 8 8 8 8 8 9 10 9 8 9 9 9 9 8 8 8 8 8 8 8 8 8 8 8 8 8 7 6 6 6 6 6 5 4 4 4 4 4 4 3 4
5 6 6 7 7 6 6 6 6 6 6 6 6 6 6 6 6 6 6 6 6 6 6 6 6 6 6 5 6 7 8 8 8 7 6 6 6 6 6 6 6 6 5 4 4 3 3 4 4 3 3 4 4 4
6 7 8 7 6 7 6 6 6 6 6 6 6 6 5 6 6 6 5 5 5 5 5 5 5 5 6 7 7 6 5 5 5 5 5 5 5 5 4 4 4 4 4 3 3 3 3 3 3 4 4 4 3 3
5 4 4 5 5 5 5 6 6 6 6 6 6 6 5 5 5 5 5 5 4 5 5 6 6 6 5 5 5 6 5 5 4 4 4 4 4 3 3 3 3 3 3 3 3 3 3 4 3 3 3 3 3 3
5 5 5 5 5 5 5 5 4 4 4 4 4 4 4 4 4 5 5 5 5 5 5 5 5 5 5 5 4 4 4 3 3 3 3 2 3 2 2 3 3 3 3 4 3 3 3 3 3 3 2 2 2 2
3 4 4 5 5 4 4 4 5 5 5 6 6 6 6 5 5 5 4 4 4 4 4 4 4 4 3 3 3 3 3 3 3 3 3 3 3 3 3 3 3 2 2 2 2 2 2 2 2 3 3 3 3 3
3 3 3 3 3 4 4 4 4 4 4 4 4 4 4 4 4 4 4 4 3 3 3 3 3 3 3 3 3 3 3 3 3 3 4 4 3 3 3 3 2 2 2 2 2 2 3 3 3 3 2 2 2 2
3 3 3 3 3 3 3 3 3 4 4 4 4 4 4 4 3 3 3 3 3 3 3 3 3 3 3 3 3 3 3 3 3 3 3 3 2 2 2 2 2 2 3 4 3 3 2 2 2 2 2 2 2 2
3 3 3 3 3 3 3 3 3 3 3 3 3 3 3 3 3 3 4 3 3 3 3 3 3 4 4 3 3 3 3 3 2 2 2 2 2 2 3 3 3 2 2 2 2 2 2 2 1 1 2 2 2 1

GFSWCAN_250_rhum_039.txt.gz
RH
19 21 23 23 32 66 80 93 98 84 68 74 94 100 100 100 100 100 96 100 100 100 82 93 88 100 99 86 90 95 91 92 82 69 61 64 75 88 91 96 100 82 76 83 100 100 90 86 85 95 88 83 84 78
20 22 22 28 49 86 99 98 97 80 77 77 93 100 100 100 100 100 93 94 100 100 100 98 87 100 100 92 80 86 95 83 85 88 82 75 84 84 96 100 96 85 98 100 100 100 100 98 92 91 81 85 96 89
23 22 24 46 81 93 99 100 94 71 74 91 91 98 99 100 100 99 100 100 100 100 100 98 90 100 100 96 81 98 100 100 93 86 83 78 77 84 100 100 99 85 100 100 98 97 85 69 77 85 84 87 77 79
23 23 39 82 94 100 100 100 99 76 76 98 100 100 100 100 100 100 100 100 100 100 100 100 100 99 100 100 100 100 100 100 100 100 100 91 79 94 96 81 84 99 100 96 80 84 81 91 92 86 85 79 75 72
24 34 78 100 100 100 96 100 100 89 81 95 100 100 100 98 100 100 100 100 100 100 100 100 100 100 100 100 100 100 100 100 100 100 100 98 100 100 99 100 100 100 94 72 90 99 93 92 94 88 74 72 71 66
25 60 95 100 100 100 100 99 100 95 82 88 100 99 100 100 100 100 99 100 100 100 100 100 100 100 100 100 100 100 100 100 100 100 100 100 100 100 100 100 100 99 88 85 81 76 81 88 90 76 64 66 79 96
57 80 100 100 100 100 100 100 100 92 83 89 100 100 100 100 100 97 100 100 98 100 100 100 100 100 100 100 100 100 100 100 100 100 100 100 100 86 80 100 98 80 86 88 84 76 74 78 78 65 70 86 97 99
85 97 100 100 100 100 100 100 100 94 85 99 96 98 100 100 100 98 98 97 99 97 95 100 100 100 100 99 97 99 99 95 96 94 93 79 70 88 100 100 95 97 92 94 98 91 86 89 78 83 85 96 100 100
92 97 100 100 100 100 100 100 100 100 93 94 100 100 98 100 100 100 98 92 92 96 92 96 100 100 100 100 100 100 100 99 91 88 90 92 100 100 97 94 88 95 96 99 99 83 83 90 94 92 93 91 92 90
95 100 100 100 100 97 93 95 89 90 86 81 75 77 89 92 90 91 98 87 88 91 94 95 90 90 92 88 85 84 85 82 83 85 85 85 92 97 88 91 97 94 96 95 98 100 99 96 91 90 84 76 76 81
92 96 100 100 100 100 97 94 96 100 96 84 86 95 80 70 66 67 64 68 74 86 96 94 95 94 96 95 87 74 71 72 76 82 85 81 94 100 98 98 99 100 100 94 88 88 89 86 78 72 78 90 93 85
95 93 98 100 93 92 87 85 85 93 96 98 96 90 95 93 94 96 98 100 99 96 93 97 97 93 89 85 85 91 92 85 85 90 84 88 100 100 96 97 100 99 90 90 90 87 89 95 99 98 89 80 73 74
90 93 100 100 100 99 87 88 83 81 85 94 97 95 88 75 62 63 84 91 100 100 100 100 99 99 95 98 97 96 89 90 93 87 88 99 100 100 98 100 100 100 100 100 100 100 99 88 78 75 78 83 80 72
66 89 100 100 100 100 100 94 88 86 87 95 99 97 92 92 87 86 96 100 100 91 92 90 88 91 99 96 93 89 84 84 85 89 91 95 90 92 88 90 96 97 93 84 75 75 80 85 86 83 72 67 66 60
51 65 80 91 92 96 98 99 98 94 91 93 97 99 95 90 93 97 98 100 100 100 91 86 90 96 99 94 91 89 82 78 80 81 83 86 85 85 89 89 88 88 86 86 87 80 77 76 70 69 70 65 60 61
51 50 59 77 88 93 94 94 97 99 96 83 80 85 87 89 90 94 97 97 98 100 100 100 100 99 99 98 94 94 94 91 90 87 86 85 82 82 86 85 82 80 76 75 75 71 68 68 67 61 56 52 38 29
61 60 50 47 60 74 86 92 95 96 92 88 89 93 95 98 94 95 99 100 100 100 100 96 94 94 93 98 100 100 100 97 92 91 89 84 82 82 83 81 70 70 74 70 64 58 49 43 39 27 23 27 22 16
43 54 61 62 61 60 65 66 73 82 92 96 92 90 92 85 80 89 95 94 95 93 92 89 92 93 95 95 95 92 94 96 93 91 89 86 82 79 73 71 65 57 52 40 28 26 22 22 24 26 17 13 12 12
38 43 46 44 49 52 48 45 55 64 70 79 82 88 87 86 86 85 85 83 81 80 78 77 74 75 76 74 72 73 75 74 72 67 63 61 58 56 54 52 44 38 36 31 26 26 22 18 14 13 12 11 9 8
48 33 33 31 32 32 28 26 30 34 36 42 52 60 66 71 76 79 78 77 78 77 73 72 70 68 65 61 61 59 55 52 50 50 51 52 51 48 44 41 34 24 20 18 16 14 13 12 12 10 8 7 6 6
42 48 50 39 32 30 27 26 24 24 24 27 27 29 31 35 43 51 58 60 57 56 56 58 59 62 62 60 58 58 55 53 52 40 32 26 20 18 16 14 13 12 12 11 11 12 12 11 8 7 6 6 6 5
36 47 77 55 50 49 36 31 29 29 28 26 22 20 23 22 21 20 20 21 20 21 21 22 22 21 22 23 22 21 19 17 16 15 14 13 12 11 11 11 10 10 10 10 10 9 7 6 5 5 5 5 5 5
20 29 34 28 26 28 32 30 28 24 23 24 22 22 21 19 17 17 18 17 18 16 15 15 14 14 14 14 14 13 12 11 11 10 10 10 10 10 9 9 8 8 8 7 6 5 5 5 5 5 5 4 4 4
16 17 17 16 16 16 17 16 16 18 20 17 15 15 15 15 15 15 16 17 17 14 14 14 14 13 13 12 10 10 9 10 10 10 10 9 8 8 8 8 7 6 6 5 5 5 5 5 5 4 4 3 3 3
15 15 14 14 14 14 14 14 14 13 14 14 15 15 15 15 14 14 15 14 11 10 10 9 9 9 8 8 9 9 9 9 8 8 7 7 7 7 6 5 5 5 4 5 5 5 5 4 3 3 3 3 3 3
11 11 12 12 12 12 13 13 12 12 12 12 12 10 10 10 10 10 9 8 7 7 8 8 8 8 7 7 7 7 7 6 6 7 7 6 6 5 5 4 4 4 4 4 4 4 3 3 3 3 3 3 3 3
8 8 8 8 8 8 8 8 8 7 8 8 8 7 7 7 7 7 6 6 7 6 6 6 6 6 6 6 7 7 7 6 6 5 5 4 4 4 4 5 5 4 4 3 3 3 3 3 4 3 3 2 2 2
5 5 5 5 6 6 6 6 6 6 6 6 6 6 6 6 6 6 6 6 6 6 6 6 6 7 6 6 5 5 4 4 5 4 4 4 4 4 4 4 3 3 3 3 3 4 4 3 3 3 3 3 3 3
5 5 5 5 5 5 5 5 5 6 6 6 6 6 6 6 6 6 5 5 5 5 6 6 6 6 5 5 5 5 4 4 4 4 4 4 3 3 3 3 3 4 4 4 3 3 3 3 3 3 3 4 4 3
4 5 5 5 5 6 6 6 5 5 5 5 5 5 5 6 6 6 6 6 6 5 5 5 4 4 4 3 3 3 3 3 3 3 3 3 3 3 3 3 3 3 3 2 2 2 2 3 3 3 3 3 2 2
3 3 3 3 3 3 3 3 3 4 4 4 4 4 4 3 3 3 3 3 3 3 3 3 3 3 3 3 3 3 3 3 3 3 3 3 3 3 2 2 2 2 2 2 2 3 3 2 2 2 2 2 1 1
3 3 3 3 3 3 3 3 3 3 3 3 3 3 3 3 3 2 3 3 3 3 3 3 3 3 3 3 3 3 3 4 3 3 3 3 3 2 2 2 2 2 2 3 3 2 2 2 2 2 1 1 1 1
2 2 3 3 3 3 3 3 3 3 3 2 2 2 2 3 3 3 3 3 3 3 3 3 3 3 3 4 3 3 3 2 2 2 2 2 2 2 2 2 2 3 2 2 2 2 2 2 1 1 1 1 1 1

GFSWCAN_250_rhum_042.txt.gz
RH
46 40 30 23 24 24 25 26 34 56 74 74 66 70 84 91 87 96 90 86 100 100 100 100 100 100 100 98 83 87 82 84 88 86 80 68 68 65 66 69 78 80 80 80 78 76 64 67 91 99 92 88 84 85
41 32 34 26 23 24 25 36 68 84 78 67 70 84 96 100 91 99 92 91 100 100 100 100 100 97 100 87 84 98 98 91 96 100 99 90 76 70 70 72 78 83 83 90 95 79 71 88 100 100 98 85 96 100
32 35 28 22 23 26 42 72 80 86 76 70 75 90 100 100 87 84 86 95 100 100 100 100 100 100 100 97 90 92 100 92 85 100 100 95 94 94 96 92 87 93 99 97 81 92 93 100 100 93 85 93 95 83
30 24 22 21 26 38 77 81 100 91 77 72 92 100 100 100 88 82 88 98 99 100 100 100 100 100 100 98 94 93 100 88 86 89 92 94 91 96 98 91 88 100 94 77 94 100 100 100 100 99 90 73 78 100
27 23 20 24 27 52 75 100 98 92 80 78 99 100 100 100 100 100 100 99 98 98 97 100 100 100 100 100 100 100 100 91 91 100 100 100 100 100 100 100 100 100 100 100 100 99 98 100 98 83 80 88 100 100
30 24 29 28 39 73 95 100 90 93 67 79 97 100 100 100 100 100 94 98 96 97 100 100 100 100 100 100 100 100 100 100 100 100 100 100 100 100 100 100 100 100 99 91 92 86 70 68 75 77 84 94 99 100
26 33 29 33 69 99 100 100 88 100 75 76 100 100 100 100 99 100 100 100 100 100 100 100 100 100 100 100 100 97 94 96 92 96 100 100 100 90 87 100 100 100 89 79 68 70 74 71 75 88 93 96 100 100
33 30 40 61 98 100 100 98 88 97 95 71 93 100 100 100 100 95 100 100 100 100 100 100 100 100 100 100 100 100 100 100 100 99 97 95 93 100 96 100 86 84 78 78 81 81 82 91 98 98 100 99 99 93
34 42 70 85 100 100 100 100 96 100 100 88 85 97 100 99 98 100 100 100 100 100 100 100 100 100 100 100 100 100 100 100 99 100 95 93 99 98 100 100 94 95 95 94 99 100 100 100 99 96 97 99 96 81
31 59 85 100 100 100 99 100 100 100 100 99 86 86 89 93 98 93 100 95 89 88 96 100 100 100 95 95 95 95 92 92 90 93 84 88 100 96 98 99 98 94 94 99 100 100 100 100 100 98 96 87 82 83
36 79 94 100 100 100 100 100 100 100 100 100 92 86 88 77 77 78 84 87 86 82 90 95 92 97 100 100 92 82 89 97 94 96 96 90 100 100 97 87 84 89 96 100 100 100 99 96 88 86 83 82 84 88
46 76 90 100 99 100 100 100 100 100 99 99 97 84 80 83 72 68 80 86 95 100 100 100 100 95 92 87 82 85 78 70 68 73 69 70 90 99 96 90 94 99 100 99 94 90 90 90 91 93 95 95 90 89
43 54 59 81 88 96 93 84 88 89 94 93 84 88 91 84 61 52 73 96 99 99 99 96 85 73 78 77 75 71 69 76 85 82 83 99 100 90 91 93 98 100 98 97 100 100 99 99 95 94 98 94 92 93
46 52 65 86 98 100 99 99 97 88 92 97 87 90 92 90 86 99 100 100 90 85 87 89 93 93 93 87 79 72 69 74 74 83 88 92 94 93 90 92 93 89 89 91 93 93 88 90 87 84 84 87 84 81
48 57 67 87 100 100 100 100 100 100 100 100 100 96 94 94 93 95 96 98 91 91 93 91 88 89 91 82 80 80 79 77 83 91 89 84 83 84 87 88 90 92 92 90 88 90 90 87 85 79 76 75 70 65
48 53 63 79 94 95 100 100 100 99 93 91 95 98 98 97 95 99 99 100 100 99 97 96 96 95 97 98 99 98 94 91 88 88 90 89 90 94 94 93 94 91 92 89 88 82 78 75 68 66 65 58 53 46
56 62 60 66 77 86 89 90 99 96 87 93 95 96 100 100 100 96 97 100 100 100 100 100 100 100 100 100 100 100 93 91 87 86 88 88 89 91 89 86 83 83 85 82 76 66 61 61 56 50 45 36 29 22
50 62 75 77 78 89 98 100 100 100 97 92 97 100 96 94 98 99 100 100 100 100 99 96 93 92 94 93 92 97 99 100 100 100 97 92 87 85 82 79 77 71 63 57 55 55 48 36 28 26 26 22 15 12
46 46 50 60 67 69 72 78 82 91 98 100 98 97 94 95 99 100 99 99 99 99 99 99 100 100 100 98 97 95 95 92 88 84 83 82 85 87 82 72 65 60 55 52 46 41 34 25 18 14 12 11 11 10
40 38 41 47 54 60 56 59 63 66 70 73 75 80 89 95 97 97 98 98 96 93 89 86 83 81 82 80 80 83 88 89 89 84 81 75 69 66 60 49 48 49 42 32 24 17 14 12 11 10 9 8 6 5
35 36 38 39 38 40 41 41 47 54 53 54 54 53 54 55 58 58 59 60 64 65 65 65 65 65 65 67 66 63 60 58 57 56 54 52 48 45 34 24 18 16 14 12 11 10 9 9 8 7 6 6 5 5
34 28 29 28 25 27 26 28 31 31 31 29 31 31 31 30 30 33 33 34 36 37 36 36 37 39 39 39 37 34 31 30 28 24 21 20 18 15 13 12 11 10 9 9 9 8 8 6 6 5 5 5 5 5
35 35 34 33 34 33 36 27 23 20 22 23 22 23 23 22 21 19 20 21 21 20 20 18 18 18 18 17 16 17 16 15 14 13 11 10 10 10 9 8 8 8 7 7 6 6 5 5 5 5 5 4 4 4
21 21 21 23 25 28 26 28 26 26 24 22 22 20 20 20 18 18 18 21 19 17 17 17 17 16 15 14 13 11 10 11 11 10 9 8 8 8 7 7 6 6 6 6 6 5 5 5 5 4 4 4 3 3
18 18 18 19 18 17 17 18 18 17 19 19 16 18 20 17 15 15 16 17 16 15 14 13 12 11 11 10 9 9 9 9 8 7 7 7 6 6 6 6 6 6 5 5 5 5 5 4 4 3 3 3 3 3
14 14 15 14 14 15 14 14 14 14 14 13 13 13 12 12 12 13 14 12 11 10 10 9 9 9 8 8 7 7 7 6 6 6 6 6 6 6 6 5 5 4 5 5 5 4 4 3 3 3 3 3 3 3
10 10 10 10 10 10 10 10 10 10 10 10 9 9 8 8 9 9 9 8 9 8 8 8 8 7 7 6 6 6 7 7 7 6 6 6 5 4 4 5 5 4 4 3 3 3 3 3 3 4 3 3 2 2
10 9 9 9 9 8 8 7 8 8 8 8 7 7 7 7 8 8 8 8 7 7 6 6 6 6 6 6 6 6 6 5 5 5 5 5 4 4 4 4 4 3 3 3 3 3 4 3 3 3 3 2 2 3
8 8 8 7 7 7 7 7 7 7 7 7 7 7 7 7 7 6 6 6 6 6 6 6 6 6 5 5 5 5 5 5 4 4 3 3 3 3 3 3 3 3 3 4 4 3 3 3 3 3 3 3 3 3
6 6 6 6 6 6 6 6 6 7 6 6 6 6 5 5 6 6 6 6 6 6 6 5 5 5 4 4 4 3 3 3 3 3 3 3 3 3 3 3 4 3 3 3 3 2 2 2 3 3 3 3 3 3
4 4 4 4 4 4 4 4 4 5 5 5 5 5 5 5 4 4 4 4 4 3 3 3 3 3 3 3 3 3 3 3 3 3 3 3 3 3 3 3 2 2 2 2 2 2 2 3 3 3 2 2 2 2
3 3 3 3 3 3 3 3 3 3 3 3 3 2 2 3 3 3 3 3 3 3 3 3 3 3 3 3 3 3 3 3 3 3 3 3 2 2 2 2 2 2 2 2 2 2 2 2 2 2 2 2 1 1
3 3 3 3 3 3 3 3 3 3 3 3 2 2 2 2 3 3 3 3 3 3 3 3 3 3 3 3 3 3 3 3 3 2 2 2 2 2 2 2 2 2 2 2 2 2 2 2 2 2 2 2 2 2

GFSWCAN_250_rhum_048.txt.gz
RH
3 3 3 3 4 5 6 7 9 10 13 14 14 17 19 20 22 26 38 45 51 58 33 32 64 92 95 73 90 100 100 98 92 84 69 70 69 59 57 54 51 49 49 56 58 58 60 68 73 85 89 89 86 90
4 4 4 5 6 7 8 10 12 14 14 14 17 18 23 23 30 38 58 68 62 40 40 64 88 97 78 76 88 94 99 91 97 92 89 85 82 67 58 56 54 55 60 67 69 70 70 77 84 83 82 85 82 79
6 6 6 8 9 11 12 13 14 16 22 21 25 29 27 34 36 57 85 74 54 41 59 72 87 90 80 84 92 100 100 100 100 96 92 97 95 80 70 65 68 69 76 81 86 89 86 88 85 81 78 84 100 100
11 12 13 15 21 27 29 41 51 45 45 38 34 33 36 35 51 72 86 69 63 63 88 94 94 88 84 85 100 100 100 100 100 95 97 100 100 98 92 83 91 94 93 91 98 93 85 79 80 85 88 98 99 81
56 48 57 60 68 63 61 53 52 55 45 44 41 44 40 43 73 92 89 62 56 63 89 98 99 99 84 85 99 100 100 99 100 100 100 100 100 100 100 100 100 99 100 100 100 100 100 100 100 100 93 82 80 84
78 84 84 82 71 74 73 64 52 47 36 37 39 38 51 75 94 95 80 70 76 80 100 95 97 99 83 87 100 100 100 100 100 100 100 100 100 100 100 100 100 100 100 100 100 100 100 100 95 96 98 100 92 75
81 78 68 67 68 65 62 57 46 44 36 38 40 57 92 100 100 99 100 93 83 81 99 100 100 97 87 90 100 100 100 96 100 100 100 100 100 95 97 100 100 99 90 85 80 82 91 98 88 72 66 75 84 84
85 85 78 77 81 79 63 55 39 31 31 36 62 98 93 97 100 100 84 64 66 58 73 90 87 95 94 85 96 100 100 100 100 98 99 100 100 100 100 100 100 100 100 97 96 89 76 68 66 77 84 78 78 75
82 80 70 62 62 52 45 41 37 34 43 72 90 100 93 92 92 95 87 65 58 54 83 100 100 94 89 87 98 100 99 96 95 100 100 98 100 100 100 100 100 100 92 86 72 70 77 82 80 76 76 72 69 73
59 66 63 53 47 49 55 65 67 65 88 89 100 96 95 96 98 92 99 70 70 98 100 100 100 100 100 100 99 96 96 97 99 100 100 100 100 100 100 100 90 83 71 67 75 85 88 85 83 77 76 82 78 78
72 66 67 50 46 52 49 76 82 86 99 100 100 100 100 99 91 96 92 97 99 100 100 100 100 99 99 94 94 92 92 97 94 100 100 100 100 100 98 88 70 60 67 78 87 88 86 81 78 76 77 78 80 76
73 70 84 70 53 56 52 56 88 100 100 100 100 100 100 99 84 91 94 93 100 100 100 99 94 96 100 99 99 98 100 97 99 100 99 98 100 97 84 71 75 90 93 93 90 86 77 81 83 76 76 83 91 92
72 63 66 60 60 67 70 79 89 100 100 98 99 100 96 97 88 92 100 100 100 100 100 98 95 92 86 84 83 86 85 91 93 86 97 100 84 74 88 98 99 100 100 100 97 96 98 98 96 97 99 97 94 90
93 63 52 53 66 72 75 87 92 97 99 97 95 88 86 98 100 100 100 98 98 99 98 94 89 84 84 81 80 79 74 76 83 92 95 87 86 96 96 96 95 97 100 97 95 98 99 97 98 96 91 92 92 92
89 69 51 49 56 74 89 87 86 92 98 97 94 96 99 100 100 99 93 89 86 83 86 92 94 95 96 94 93 87 85 86 86 82 78 82 86 86 90 100 99 98 97 98 100 99 97 91 86 85 84 82 80 78
100 83 67 54 46 70 73 84 79 81 94 98 93 98 100 100 100 98 97 100 100 100 94 86 87 92 95 92 96 96 97 94 89 88 87 82 86 92 91 83 82 89 95 95 89 84 81 78 74 74 73 74 71 68
80 81 64 63 70 64 70 86 89 97 95 100 100 100 100 100 100 100 100 100 100 99 100 100 100 96 84 82 85 90 92 87 82 78 77 78 81 83 90 99 100 94 87 82 79 77 72 74 80 79 75 67 59 47
54 66 70 53 58 73 81 94 88 86 90 96 95 97 99 100 100 94 93 93 94 96 98 100 99 96 96 95 95 95 96 97 99 100 100 100 100 100 96 89 84 81 75 73 72 74 74 71 68 64 57 39 25 21
47 47 51 58 44 54 66 80 72 69 76 86 86 92 98 98 92 91 92 94 93 95 100 99 98 98 96 98 98 100 100 99 97 96 92 88 85 78 72 70 70 72 74 78 77 72 64 52 40 30 25 21 21 17
33 42 42 46 44 36 43 58 54 44 50 56 63 68 77 83 87 85 90 96 94 88 87 89 90 92 96 97 95 90 86 85 84 84 87 89 82 78 76 76 74 73 71 63 55 45 38 30 23 19 17 15 12 10
36 35 34 36 39 36 33 36 41 44 46 51 57 64 69 72 73 75 76 78 77 78 83 84 84 82 84 85 84 83 79 77 79 79 78 79 76 68 65 62 54 51 44 34 27 23 20 18 13 11 10 8 7 6
32 32 29 27 31 27 26 30 31 34 42 50 61 75 77 77 77 78 79 82 84 90 90 86 82 76 71 74 74 70 70 72 71 66 61 61 59 49 40 32 26 26 24 21 18 15 12 10 9 7 6 6 5 5
26 28 26 25 26 25 27 29 35 40 44 41 38 40 43 48 54 62 66 69 68 66 64 62 61 61 61 61 62 60 54 51 48 42 37 34 30 24 21 20 18 16 13 11 10 8 7 6 6 5 5 5 5 4
22 22 22 22 23 23 21 22 23 25 26 30 33 34 37 39 41 42 42 39 36 37 38 39 38 36 35 33 29 26 24 22 21 20 19 18 16 14 12 11 10 9 8 7 6 6 5 5 5 5 4 4 3 3
19 22 23 23 23 21 20 19 20 20 21 22 22 22 22 22 21 22 23 23 22 22 21 21 21 20 20 20 18 17 16 14 14 13 12 11 11 9 8 7 6 6 6 5 5 5 5 4 4 3 3 3 3 3
14 14 15 16 18 18 20 20 20 21 22 22 22 20 19 19 18 18 19 18 17 16 16 15 15 14 13 12 12 12 12 11 10 9 8 7 7 6 5 6 6 5 5 5 5 4 3 3 3 3 3 3 3 3
13 13 13 14 14 14 15 15 14 14 14 15 14 14 14 13 13 13 13 12 12 12 12 11 11 11 10 9 9 8 8 7 7 6 6 5 5 6 5 5 4 4 4 3 3 3 3 3 3 3 3 3 3 2
11 11 11 11 11 11 11 11 11 11 11 10 10 10 10 10 10 10 10 10 9 9 8 8 8 8 7 7 6 6 6 5 5 5 5 5 5 4 4 3 3 3 3 3 3 3 3 3 3 2 2 2 2 2
10 11 11 9 10 10 10 10 10 10 10 9 9 9 9 8 8 7 7 7 6 6 6 6 6 6 5 5 5 5 5 5 4 4 3 3 3 3 3 3 3 3 3 3 3 3 2 2 2 2 2 2 2 2
8 8 8 8 7 7 6 7 7 7 6 5 5 5 6 6 6 5 5 5 5 5 5 5 4 4 4 3 3 3 3 3 3 3 2 2 2 2 2 3 3 3 3 2 2 2 3 3 2 2 2 2 2 2
5 5 5 5 5 5 5 5 5 4 4 4 4 4 4 4 4 4 4 3 3 3 3 3 3 3 3 3 3 2 2 2 2 2 2 2 3 3 3 3 2 2 2 2 2 2 2 2 2 2 2 2 2 2
4 4 4 4 4 4 4 4 3 3 3 3 3 3 3 3 3 3 3 3 3 2 2 2 2 2 2 2 2 2 2 2 3 3 3 3 2 2 2 2 2 2 2 2 2 2 2 2 2 2 2 2 2 2
3 3 3 3 3 3 3 3 3 3 3 3 2 2 2 2 2 2 2 2 2 2 2 2 2 2 2 2 2 3 3 3 2 2 2 2 2 2 2 2 2 2 2 2 2 1 1 1 2 2 2 2 1 1

GFSWCAN_250_rhum_051.txt.gz
RH
1 1 1 2 2 2 2 2 3 4 7 9 10 13 16 16 18 20 21 25 36 34 26 24 25 31 32 52 55 84 99 98 100 100 100 97 84 63 52 49 51 54 63 63 55 58 64 63 60 77 75 68 70 74
2 2 2 2 2 2 3 3 4 6 9 11 10 11 14 15 17 17 17 16 17 31 18 23 33 32 56 45 50 87 96 96 93 92 99 94 82 75 58 53 57 60 59 63 61 52 54 57 60 68 76 79 83 85
3 3 3 3 3 3 4 5 6 8 9 10 12 14 15 15 14 14 15 17 17 21 22 28 30 48 55 42 89 89 99 100 100 100 99 88 83 81 69 68 68 67 67 64 57 56 57 61 70 86 94 98 100 100
3 4 4 4 4 4 5 6 8 10 12 14 16 16 15 14 14 16 20 22 38 31 32 32 55 62 52 63 92 95 100 100 100 100 100 90 87 91 87 84 86 86 74 69 65 67 76 88 99 97 100 100 100 98
5 6 5 5 6 6 8 11 14 16 16 16 16 17 16 16 20 25 33 34 36 38 38 60 72 51 64 88 97 100 91 92 100 100 100 96 90 97 99 96 100 96 92 89 88 97 99 100 100 96 86 79 82 93
8 8 8 9 10 10 12 14 16 17 18 18 17 18 23 28 33 37 41 44 48 51 60 83 61 48 84 96 100 100 100 100 100 100 100 100 99 97 100 100 100 100 100 100 100 100 100 91 81 74 78 96 100 100
32 33 33 31 27 24 22 22 23 21 23 28 33 37 41 44 52 57 47 52 60 66 96 67 58 88 99 100 100 100 100 100 100 96 92 100 100 97 100 100 100 100 90 85 71 67 68 67 92 100 100 98 94 81
100 100 100 98 95 88 74 74 82 99 91 69 58 56 58 61 61 47 48 64 75 90 69 62 77 98 95 100 100 100 100 98 89 85 95 100 100 98 97 100 98 97 88 82 80 86 98 100 96 84 79 69 60 60
100 100 100 100 94 100 100 100 96 74 61 56 64 70 66 61 47 40 71 95 100 100 78 67 75 86 100 100 100 99 100 97 82 78 89 100 100 99 100 100 92 89 88 89 99 100 100 90 85 69 53 54 64 67
97 97 94 92 91 95 97 94 76 71 70 66 57 54 60 60 74 100 100 82 83 88 81 67 66 82 90 92 89 92 98 94 98 100 100 100 98 100 100 96 93 90 85 96 100 99 90 87 74 62 69 70 76 76
86 89 88 86 86 81 78 73 70 63 67 66 61 56 59 80 99 97 85 60 84 87 84 72 72 83 100 99 100 98 96 98 100 100 95 99 100 100 100 95 83 84 96 100 98 91 86 76 67 73 80 84 80 84
82 83 75 73 70 68 57 48 45 40 41 48 71 84 87 95 100 100 94 88 100 100 100 100 87 80 93 100 99 92 90 89 92 100 100 100 100 100 96 95 100 100 100 95 86 80 77 76 75 79 79 85 95 96
73 81 86 84 76 56 43 49 48 50 56 68 93 99 87 94 96 95 99 100 100 100 93 81 80 88 93 96 96 93 90 99 100 99 100 100 100 100 100 100 98 93 84 78 79 89 93 84 80 92 100 100 99 92
70 70 66 59 55 72 59 41 47 58 79 99 97 93 93 89 93 100 100 100 100 100 100 100 94 99 100 100 100 98 97 100 100 100 100 98 86 82 79 74 73 80 94 100 100 95 89 96 97 91 92 92 86 87
74 81 87 67 56 50 67 74 64 63 85 93 90 92 100 100 100 100 100 100 100 100 100 95 94 95 99 95 98 95 84 73 75 81 82 81 83 90 97 100 100 99 96 94 98 99 93 95 99 100 94 90 90 88
88 89 86 84 81 72 55 67 79 82 73 89 97 99 100 99 98 94 93 96 100 100 96 94 97 97 97 92 93 91 88 95 100 99 99 99 100 100 100 99 98 99 100 100 99 100 100 98 90 88 84 78 79 75
93 89 89 86 79 76 65 56 59 60 74 79 89 100 100 100 100 100 100 100 100 100 100 98 96 97 94 92 94 100 100 97 96 99 99 99 97 92 89 88 86 91 95 97 98 89 82 75 73 78 80 69 60 53
88 88 88 88 78 79 79 78 66 54 72 90 94 99 100 100 100 100 100 100 100 100 100 100 99 94 91 92 98 96 94 91 94 94 88 77 79 90 97 100 93 83 78 76 73 71 71 76 73 66 57 50 41 33
65 86 89 84 82 73 65 68 81 82 76 81 95 94 95 99 98 97 97 98 99 97 91 86 85 86 86 88 93 96 96 90 88 89 91 91 87 76 69 70 73 74 75 76 74 72 68 62 55 48 42 34 24 24
54 61 76 88 78 86 67 60 59 64 68 70 78 88 95 95 93 93 90 89 88 86 87 92 95 96 98 99 100 100 96 95 92 87 84 81 79 79 78 77 73 67 64 62 59 53 45 40 37 30 24 22 19 15
46 55 54 67 72 61 59 58 49 45 49 56 67 73 73 79 93 90 85 88 94 96 97 100 97 93 97 96 93 90 85 80 75 72 68 69 69 66 65 64 61 60 59 52 38 33 30 25 22 21 16 13 11 10
35 36 50 51 55 58 51 45 35 38 41 46 52 54 63 70 68 66 68 72 77 80 81 78 75 74 72 70 66 62 61 63 68 70 65 63 64 63 61 54 45 38 33 29 28 25 20 16 14 12 10 10 8 6
28 33 40 44 46 45 48 50 47 38 36 34 32 37 44 51 53 49 50 47 48 53 56 57 58 57 56 55 54 56 60 59 54 54 56 52 46 39 35 33 29 28 28 24 18 15 12 10 10 8 7 6 6 6
18 20 22 25 28 31 37 39 42 38 35 33 31 29 30 30 31 35 36 36 36 39 40 38 37 38 42 45 47 46 45 44 42 39 32 28 28 27 26 24 21 18 15 13 11 10 9 8 7 6 6 5 4 3
18 18 18 19 21 22 24 25 26 25 26 25 24 25 25 24 24 25 27 27 28 27 28 30 31 33 34 33 30 29 28 28 28 26 23 21 18 16 15 13 12 11 10 9 8 7 6 5 5 4 4 3 3 3
15 15 16 16 16 16 16 15 16 17 17 18 19 21 22 24 24 26 26 26 26 26 25 24 24 23 23 23 22 21 19 18 16 14 13 11 11 10 9 9 8 7 6 6 5 5 4 4 3 3 3 3 3 3
13 14 14 14 14 15 16 16 16 17 17 18 18 18 18 18 18 19 18 18 18 18 19 18 17 17 17 16 14 13 11 11 10 9 8 8 7 7 6 6 6 5 5 4 4 3 3 3 3 3 3 3 3 3
10 10 11 12 13 14 15 16 16 18 17 17 16 15 16 16 16 17 17 17 17 16 15 14 13 12 10 10 9 9 8 7 7 6 6 6 6 5 5 4 4 3 3 3 3 3 3 3 3 3 3 2 2 2
11 10 10 10 10 10 11 11 12 12 12 12 12 12 12 12 12 11 11 11 10 10 9 9 8 8 7 6 6 6 5 5 5 5 4 4 3 3 3 3 3 2 2 3 3 3 3 3 2 2 2 2 2 2
8 9 10 10 10 11 11 12 11 11 10 10 9 9 9 9 8 8 8 8 7 7 7 6 6 5 5 5 5 4 4 3 3 2 2 2 2 2 2 2 2 3 3 2 2 2 2 2 2 2 2 2 2 2
5 5 6 5 5 5 5 5 6 6 6 6 5 5 5 5 5 5 5 5 5 5 5 5 4 4 3 3 3 3 2 2 2 2 2 2 2 2 2 2 2 2 2 2 2 2 2 2 2 2 2 2 1 1
4 5 5 5 5 5 5 5 5 5 5 5 5 4 4 4 4 3 3 3 3 3 3 3 3 2 2 2 2 2 2 2 2 2 2 2 2 2 2 2 2 2 2 2 2 2 2 2 1 1 1 1 2 1
4 4 4 4 4 3 3 3 3 3 3 3 3 3 3 3 3 3 3 2 2 2 2 2 2 2 2 2 2 2 2 2 2 2 2 2 2 2 2 2 2 2 2 2 1 1 1 1 1 1 1 1 1 1